Time,TemperatureF,DewpointF,PressureIn,WindDirection,WindDirectionDegrees,WindSpeedMPH,WindSpeedGustMPH,Humidity,HourlyPrecipIn,Conditions,Clouds,dailyrainin,SoftwareType,DateUTC
2013-03-22 00:01:00,64.4,31.5,27.26,SSW,195,5.4,6.3,29,0.00,,,0.00,VWS V14.00,2013-03-22 06:01:00,
2013-03-22 00:02:00,64.2,31.3,27.26,South,191,3.1,6.3,29,0.00,,,0.00,VWS V14.00,2013-03-22 06:02:00,
2013-03-22 00:04:00,64.2,31.3,27.26,South,190,3.1,6.3,29,0.00,,,0.00,VWS V14.00,2013-03-22 06:04:00,
2013-03-22 00:05:00,64.2,31.3,27.26,South,190,3.6,6.3,29,0.00,,,0.00,VWS V14.00,2013-03-22 06:05:00,
2013-03-22 00:07:00,63.9,31.0,27.26,South,190,3.1,6.3,29,0.00,,,0.00,VWS V14.00,2013-03-22 06:07:00,
2013-03-22 00:09:00,64.0,32.0,27.26,South,189,4.0,6.3,30,0.00,,,0.00,VWS V14.00,2013-03-22 06:09:00,
2013-03-22 00:10:00,64.0,32.0,27.26,South,182,3.6,6.3,30,0.00,,,0.00,VWS V14.00,2013-03-22 06:10:00,
2013-03-22 00:11:00,63.9,31.9,27.26,South,182,3.1,6.3,30,0.00,,,0.00,VWS V14.00,2013-03-22 06:11:00,
2013-03-22 00:12:00,63.9,31.9,27.26,South,182,3.6,6.3,30,0.00,,,0.00,VWS V14.00,2013-03-22 06:12:00,
2013-03-22 00:15:00,63.5,31.5,27.26,South,182,3.1,6.3,30,0.00,,,0.00,VWS V14.00,2013-03-22 06:15:00,
2013-03-22 00:17:00,63.5,31.5,27.26,South,185,2.7,4.0,30,0.00,,,0.00,VWS V14.00,2013-03-22 06:17:00,
2013-03-22 00:18:00,63.3,32.2,27.26,South,189,3.1,4.0,31,0.00,,,0.00,VWS V14.00,2013-03-22 06:18:00,
2013-03-22 00:20:00,63.5,33.1,27.26,South,183,4.9,6.3,32,0.00,,,0.00,VWS V14.00,2013-03-22 06:20:00,
2013-03-22 00:22:00,63.5,32.3,27.26,SSW,195,3.1,6.3,31,0.00,,,0.00,VWS V14.00,2013-03-22 06:22:00,
2013-03-22 00:23:00,63.5,32.3,27.26,SSW,193,4.9,6.3,31,0.00,,,0.00,VWS V14.00,2013-03-22 06:23:00,
2013-03-22 00:24:00,63.5,32.3,27.26,SSW,193,3.6,6.3,31,0.00,,,0.00,VWS V14.00,2013-03-22 06:24:00,
2013-03-22 00:25:00,63.5,32.3,27.26,South,187,4.9,6.3,31,0.00,,,0.00,VWS V14.00,2013-03-22 06:25:00,
2013-03-22 00:27:00,63.5,33.1,27.26,South,176,4.0,6.3,32,0.00,,,0.00,VWS V14.00,2013-03-22 06:27:00,
2013-03-22 00:28:00,63.5,33.1,27.26,South,189,4.9,6.3,32,0.00,,,0.00,VWS V14.00,2013-03-22 06:28:00,
2013-03-22 00:29:00,63.5,33.1,27.26,South,190,4.0,6.3,32,0.00,,,0.00,VWS V14.00,2013-03-22 06:29:00,
2013-03-22 00:32:00,63.1,32.0,27.26,South,182,4.9,4.9,31,0.00,,,0.00,VWS V14.00,2013-03-22 06:32:00,
2013-03-22 00:33:00,63.3,33.0,27.26,South,188,4.0,4.9,32,0.00,,,0.00,VWS V14.00,2013-03-22 06:33:00,
2013-03-22 00:34:00,63.3,33.8,27.26,SSW,198,4.9,4.9,33,0.00,,,0.00,VWS V14.00,2013-03-22 06:34:00,
2013-03-22 00:38:00,63.3,33.0,27.26,South,190,4.0,5.4,32,0.00,,,0.00,VWS V14.00,2013-03-22 06:38:00,
2013-03-22 00:39:00,63.5,33.1,27.26,South,173,5.4,7.6,32,0.00,,,0.00,VWS V14.00,2013-03-22 06:39:00,
2013-03-22 00:40:00,63.7,33.3,27.26,South,187,5.8,7.6,32,0.00,,,0.00,VWS V14.00,2013-03-22 06:40:00,
2013-03-22 00:43:00,63.7,33.3,27.26,SSW,194,5.8,7.6,32,0.00,,,0.00,VWS V14.00,2013-03-22 06:43:00,
2013-03-22 00:44:00,63.5,32.3,27.26,South,191,3.6,7.6,31,0.00,,,0.00,VWS V14.00,2013-03-22 06:44:00,
2013-03-22 00:47:00,63.5,32.3,27.26,South,179,4.0,4.9,31,0.00,,,0.00,VWS V14.00,2013-03-22 06:47:00,
2013-03-22 00:48:00,63.3,32.2,27.26,South,189,3.6,5.4,31,0.00,,,0.00,VWS V14.00,2013-03-22 06:48:00,
2013-03-22 00:50:00,63.3,33.0,27.26,SSW,194,5.4,5.4,32,0.00,,,0.00,VWS V14.00,2013-03-22 06:50:00,
2013-03-22 00:52:00,63.1,32.8,27.26,SSW,192,4.0,5.4,32,0.00,,,0.00,VWS V14.00,2013-03-22 06:52:00,
2013-03-22 00:53:00,63.0,32.7,27.26,SSW,195,4.0,5.4,32,0.00,,,0.00,VWS V14.00,2013-03-22 06:53:00,
2013-03-22 00:54:00,63.0,33.4,27.26,South,189,4.9,5.4,33,0.00,,,0.00,VWS V14.00,2013-03-22 06:54:00,
2013-03-22 00:56:00,62.8,33.3,27.26,South,189,3.1,5.4,33,0.00,,,0.00,VWS V14.00,2013-03-22 06:56:00,
2013-03-22 00:58:00,62.6,33.9,27.26,South,189,2.2,5.4,34,0.00,,,0.00,VWS V14.00,2013-03-22 06:58:00,
2013-03-22 00:59:00,62.6,33.9,27.26,SSW,196,4.0,5.4,34,0.00,,,0.00,VWS V14.00,2013-03-22 06:59:00,
2013-03-22 01:00:00,62.6,34.6,27.26,SSW,196,2.7,5.4,35,0.00,,,0.00,VWS V14.00,2013-03-22 07:00:00,
2013-03-22 01:02:00,62.4,34.4,27.26,SSW,196,3.1,3.6,35,0.00,,,0.00,VWS V14.00,2013-03-22 07:02:00,
2013-03-22 01:04:00,62.4,35.1,27.26,SSW,195,3.1,4.0,36,0.00,,,0.00,VWS V14.00,2013-03-22 07:04:00,
2013-03-22 01:05:00,62.4,35.1,27.26,SSW,195,3.1,4.0,36,0.00,,,0.00,VWS V14.00,2013-03-22 07:05:00,
2013-03-22 01:08:00,62.4,35.1,27.26,SSW,195,2.7,4.0,36,0.00,,,0.00,VWS V14.00,2013-03-22 07:08:00,
2013-03-22 01:10:00,62.2,35.0,27.26,SSW,195,0.0,4.0,36,0.00,,,0.00,VWS V14.00,2013-03-22 07:10:00,
2013-03-22 01:13:00,61.9,34.7,27.26,SSW,195,0.0,4.0,36,0.00,,,0.00,VWS V14.00,2013-03-22 07:13:00,
2013-03-22 01:15:00,61.9,34.7,27.26,SSW,195,0.0,4.0,36,0.00,,,0.00,VWS V14.00,2013-03-22 07:15:00,
2013-03-22 01:16:00,61.9,35.3,27.26,SSW,195,0.0,0.0,37,0.00,,,0.00,VWS V14.00,2013-03-22 07:16:00,
2013-03-22 01:19:00,61.9,36.0,27.26,SSW,195,0.0,0.0,38,0.00,,,0.00,VWS V14.00,2013-03-22 07:19:00,
2013-03-22 01:20:00,61.7,35.9,27.26,SSW,195,0.0,0.0,38,0.00,,,0.00,VWS V14.00,2013-03-22 07:20:00,
2013-03-22 01:22:00,61.7,35.9,27.26,SSW,195,0.0,0.0,38,0.00,,,0.00,VWS V14.00,2013-03-22 07:22:00,
2013-03-22 01:25:00,61.9,36.7,27.26,SSW,195,0.0,0.0,39,0.00,,,0.00,VWS V14.00,2013-03-22 07:25:00,
2013-03-22 01:27:00,62.1,37.5,27.26,SSW,195,0.0,0.0,40,0.00,,,0.00,VWS V14.00,2013-03-22 07:27:00,
2013-03-22 01:29:00,62.2,39.5,27.26,SSW,195,0.0,0.0,43,0.00,,,0.00,VWS V14.00,2013-03-22 07:29:00,
2013-03-22 01:30:00,62.2,39.5,27.26,SSW,195,0.0,0.0,43,0.00,,,0.00,VWS V14.00,2013-03-22 07:30:00,
2013-03-22 01:33:00,62.6,39.2,27.26,SSW,195,0.0,0.0,42,0.00,,,0.00,VWS V14.00,2013-03-22 07:33:00,
2013-03-22 01:34:00,62.6,38.6,27.26,SSW,195,0.0,0.0,41,0.00,,,0.00,VWS V14.00,2013-03-22 07:34:00,
2013-03-22 01:36:00,62.4,37.8,27.26,SSW,195,0.0,0.0,40,0.00,,,0.00,VWS V14.00,2013-03-22 07:36:00,
2013-03-22 01:38:00,62.2,35.7,27.26,SSW,195,0.0,0.0,37,0.00,,,0.00,VWS V14.00,2013-03-22 07:38:00,
2013-03-22 01:39:00,62.1,34.8,27.26,SSW,195,0.0,0.0,36,0.00,,,0.00,VWS V14.00,2013-03-22 07:39:00,
2013-03-22 01:41:00,61.9,34.0,27.26,SSW,195,0.0,0.0,35,0.00,,,0.00,VWS V14.00,2013-03-22 07:41:00,
2013-03-22 01:43:00,61.9,34.7,27.26,SSW,195,0.0,0.0,36,0.00,,,0.00,VWS V14.00,2013-03-22 07:43:00,
2013-03-22 01:45:00,61.7,35.2,27.26,SSW,195,0.0,0.0,37,0.00,,,0.00,VWS V14.00,2013-03-22 07:45:00,
2013-03-22 01:48:00,61.3,34.2,27.23,SSW,195,0.0,0.0,36,0.00,,,0.00,VWS V14.00,2013-03-22 07:48:00,
2013-03-22 01:49:00,61.3,34.2,27.23,SSW,195,0.0,0.0,36,0.00,,,0.00,VWS V14.00,2013-03-22 07:49:00,
2013-03-22 01:50:00,61.2,34.0,27.23,SSW,195,0.0,0.0,36,0.00,,,0.00,VWS V14.00,2013-03-22 07:50:00,
2013-03-22 01:52:00,61.0,33.9,27.23,SSW,195,0.0,0.0,36,0.00,,,0.00,VWS V14.00,2013-03-22 07:52:00,
2013-03-22 01:54:00,61.0,33.9,27.23,SSW,195,0.0,0.0,36,0.00,,,0.00,VWS V14.00,2013-03-22 07:54:00,
2013-03-22 01:55:00,61.0,34.5,27.23,SSW,195,0.0,0.0,37,0.00,,,0.00,VWS V14.00,2013-03-22 07:55:00,
2013-03-22 01:57:00,60.8,35.1,27.23,SSW,195,0.0,0.0,38,0.00,,,0.00,VWS V14.00,2013-03-22 07:57:00,
2013-03-22 01:59:00,60.8,35.7,27.23,SSW,195,0.0,0.0,39,0.00,,,0.00,VWS V14.00,2013-03-22 07:59:00,
2013-03-22 02:00:00,60.8,35.7,27.23,SSW,195,0.0,0.0,39,0.00,,,0.00,VWS V14.00,2013-03-22 08:00:00,
2013-03-22 02:03:00,61.0,38.9,27.23,SSW,195,0.0,0.0,44,0.00,,,0.00,VWS V14.00,2013-03-22 08:03:00,
2013-03-22 02:04:00,61.0,39.5,27.23,SSW,195,0.0,0.0,45,0.00,,,0.00,VWS V14.00,2013-03-22 08:04:00,
2013-03-22 02:05:00,60.8,40.5,27.23,SSW,195,0.0,0.0,47,0.00,,,0.00,VWS V14.00,2013-03-22 08:05:00,
2013-03-22 02:08:00,60.8,42.1,27.23,SSW,195,0.0,0.0,50,0.00,,,0.00,VWS V14.00,2013-03-22 08:08:00,
2013-03-22 02:09:00,61.0,44.2,27.23,SSW,195,0.0,0.0,54,0.00,,,0.00,VWS V14.00,2013-03-22 08:09:00,
2013-03-22 02:10:00,61.0,45.2,27.23,SSW,195,0.0,0.0,56,0.00,,,0.00,VWS V14.00,2013-03-22 08:10:00,
2013-03-22 02:13:00,61.2,48.9,27.23,SSW,195,0.0,0.0,64,0.00,,,0.00,VWS V14.00,2013-03-22 08:13:00,
2013-03-22 02:14:00,61.2,49.3,27.23,SSW,195,0.0,0.0,65,0.00,,,0.00,VWS V14.00,2013-03-22 08:14:00,
2013-03-22 02:15:00,61.2,49.7,27.23,SSW,195,0.0,0.0,66,0.00,,,0.00,VWS V14.00,2013-03-22 08:15:00,
2013-03-22 02:19:00,61.2,50.1,27.23,SSW,195,0.0,0.0,67,0.00,,,0.00,VWS V14.00,2013-03-22 08:19:00,
2013-03-22 02:20:00,61.3,50.7,27.23,SSW,195,0.0,0.0,68,0.00,,,0.00,VWS V14.00,2013-03-22 08:20:00,
2013-03-22 02:25:00,61.7,52.2,27.23,SSW,195,0.0,0.0,71,0.00,,,0.00,VWS V14.00,2013-03-22 08:25:00,
2013-03-22 02:30:00,62.2,53.1,27.23,SSW,195,0.0,0.0,72,0.00,,,0.00,VWS V14.00,2013-03-22 08:30:00,
2013-03-22 02:32:00,62.4,52.9,27.23,SSW,195,0.0,0.0,71,0.00,,,0.00,VWS V14.00,2013-03-22 08:32:00,
2013-03-22 02:34:00,62.4,52.9,27.23,SSW,195,0.0,0.0,71,0.00,,,0.00,VWS V14.00,2013-03-22 08:34:00,
2013-03-22 02:36:00,62.4,52.1,27.23,SSW,195,0.0,0.0,69,0.00,,,0.00,VWS V14.00,2013-03-22 08:36:00,
2013-03-22 02:37:00,62.6,51.9,27.23,SSW,195,0.0,0.0,68,0.00,,,0.00,VWS V14.00,2013-03-22 08:37:00,
2013-03-22 02:38:00,62.6,51.5,27.23,SSW,195,0.0,0.0,67,0.00,,,0.00,VWS V14.00,2013-03-22 08:38:00,
2013-03-22 02:40:00,62.6,50.7,27.23,SSW,195,0.0,0.0,65,0.00,,,0.00,VWS V14.00,2013-03-22 08:40:00,
2013-03-22 02:42:00,62.8,50.0,27.23,SSW,195,0.0,0.0,63,0.00,,,0.00,VWS V14.00,2013-03-22 08:42:00,
2013-03-22 02:43:00,62.8,49.6,27.23,SSW,195,0.0,0.0,62,0.00,,,0.00,VWS V14.00,2013-03-22 08:43:00,
2013-03-22 02:46:00,63.0,48.0,27.23,SSW,195,0.0,0.0,58,0.00,,,0.00,VWS V14.00,2013-03-22 08:46:00,
2013-03-22 02:47:00,63.0,47.0,27.23,SSW,195,0.0,0.0,56,0.00,,,0.00,VWS V14.00,2013-03-22 08:47:00,
2013-03-22 02:48:00,63.0,46.6,27.20,SSW,195,0.0,0.0,55,0.00,,,0.00,VWS V14.00,2013-03-22 08:48:00,
2013-03-22 02:49:00,63.0,45.6,27.20,SSW,195,0.0,0.0,53,0.00,,,0.00,VWS V14.00,2013-03-22 08:49:00,
2013-03-22 02:51:00,63.0,43.0,27.20,SSW,195,0.0,0.0,48,0.00,,,0.00,VWS V14.00,2013-03-22 08:51:00,
2013-03-22 02:52:00,63.0,41.9,27.20,SSW,195,0.0,0.0,46,0.00,,,0.00,VWS V14.00,2013-03-22 08:52:00,
2013-03-22 02:53:00,63.0,39.5,27.20,SSW,195,0.0,0.0,42,0.00,,,0.00,VWS V14.00,2013-03-22 08:53:00,
2013-03-22 02:56:00,62.8,36.2,27.20,SSW,195,0.0,0.0,37,0.00,,,0.00,VWS V14.00,2013-03-22 08:56:00,
2013-03-22 02:57:00,62.8,36.2,27.20,SSW,195,0.0,0.0,37,0.00,,,0.00,VWS V14.00,2013-03-22 08:57:00,
2013-03-22 02:58:00,62.8,34.8,27.20,SSW,195,0.0,0.0,35,0.00,,,0.00,VWS V14.00,2013-03-22 08:58:00,
2013-03-22 03:01:00,62.8,33.3,27.20,SSW,195,0.0,0.0,33,0.00,,,0.00,VWS V14.00,2013-03-22 09:01:00,
2013-03-22 03:02:00,62.8,33.3,27.20,SSW,195,0.0,0.0,33,0.00,,,0.00,VWS V14.00,2013-03-22 09:02:00,
2013-03-22 03:03:00,62.8,33.3,27.20,SSW,195,0.0,0.0,33,0.00,,,0.00,VWS V14.00,2013-03-22 09:03:00,
2013-03-22 03:04:00,62.8,33.3,27.20,SSW,195,0.0,0.0,33,0.00,,,0.00,VWS V14.00,2013-03-22 09:04:00,
2013-03-22 03:07:00,62.8,34.0,27.20,SSW,195,0.0,0.0,34,0.00,,,0.00,VWS V14.00,2013-03-22 09:07:00,
2013-03-22 03:09:00,62.8,34.0,27.20,SSW,195,0.0,0.0,34,0.00,,,0.00,VWS V14.00,2013-03-22 09:09:00,
2013-03-22 03:12:00,62.6,34.6,27.20,SSW,195,0.0,0.0,35,0.00,,,0.00,VWS V14.00,2013-03-22 09:12:00,
2013-03-22 03:13:00,62.6,35.3,27.20,SSW,195,0.0,0.0,36,0.00,,,0.00,VWS V14.00,2013-03-22 09:13:00,
2013-03-22 03:14:00,62.8,35.5,27.20,SSW,195,0.0,0.0,36,0.00,,,0.00,VWS V14.00,2013-03-22 09:14:00,
2013-03-22 03:15:00,62.8,35.5,27.20,SSW,195,0.0,0.0,36,0.00,,,0.00,VWS V14.00,2013-03-22 09:15:00,
2013-03-22 03:17:00,62.8,36.2,27.20,SSW,195,0.0,0.0,37,0.00,,,0.00,VWS V14.00,2013-03-22 09:17:00,
2013-03-22 03:19:00,62.6,36.0,27.20,SSW,195,0.0,0.0,37,0.00,,,0.00,VWS V14.00,2013-03-22 09:19:00,
2013-03-22 03:20:00,62.6,36.0,27.20,SSW,195,0.0,0.0,37,0.00,,,0.00,VWS V14.00,2013-03-22 09:20:00,
2013-03-22 03:22:00,62.6,36.0,27.20,SSW,195,0.0,0.0,37,0.00,,,0.00,VWS V14.00,2013-03-22 09:22:00,
2013-03-22 03:23:00,62.6,36.0,27.20,SSW,195,0.0,0.0,37,0.00,,,0.00,VWS V14.00,2013-03-22 09:23:00,
2013-03-22 03:24:00,62.6,36.0,27.20,SSW,195,0.0,0.0,37,0.00,,,0.00,VWS V14.00,2013-03-22 09:24:00,
2013-03-22 03:27:00,62.8,36.2,27.20,SSW,195,0.0,0.0,37,0.00,,,0.00,VWS V14.00,2013-03-22 09:27:00,
2013-03-22 03:28:00,63.0,35.6,27.20,SSW,195,0.0,0.0,36,0.00,,,0.00,VWS V14.00,2013-03-22 09:28:00,
2013-03-22 03:29:00,63.1,35.1,27.20,SSW,195,0.0,0.0,35,0.00,,,0.00,VWS V14.00,2013-03-22 09:29:00,
2013-03-22 03:33:00,63.5,34.7,27.20,SSW,195,0.0,0.0,34,0.00,,,0.00,VWS V14.00,2013-03-22 09:33:00,
2013-03-22 03:34:00,63.5,33.9,27.20,SSW,195,0.0,0.0,33,0.00,,,0.00,VWS V14.00,2013-03-22 09:34:00,
2013-03-22 03:39:00,64.2,33.8,27.20,SSW,195,0.0,0.0,32,0.00,,,0.00,VWS V14.00,2013-03-22 09:39:00,
2013-03-22 03:40:00,64.4,33.1,27.20,SSW,195,0.0,0.0,31,0.00,,,0.00,VWS V14.00,2013-03-22 09:40:00,
2013-03-22 03:44:00,64.9,32.8,27.20,SSW,195,0.0,0.0,30,0.00,,,0.00,VWS V14.00,2013-03-22 09:44:00,
2013-03-22 03:45:00,65.1,32.9,27.20,South,190,0.0,0.0,30,0.00,,,0.00,VWS V14.00,2013-03-22 09:45:00,
2013-03-22 03:49:00,65.5,32.4,27.20,SSW,195,0.0,0.0,29,0.00,,,0.00,VWS V14.00,2013-03-22 09:49:00,
2013-03-22 03:50:00,65.5,32.4,27.20,SSW,195,0.0,0.0,29,0.00,,,0.00,VWS V14.00,2013-03-22 09:50:00,
2013-03-22 03:52:00,65.7,32.6,27.20,South,185,0.0,0.0,29,0.00,,,0.00,VWS V14.00,2013-03-22 09:52:00,
2013-03-22 03:54:00,65.7,32.6,27.20,South,190,0.0,0.0,29,0.00,,,0.00,VWS V14.00,2013-03-22 09:54:00,
2013-03-22 03:57:00,65.8,32.7,27.20,South,191,0.0,0.0,29,0.00,,,0.00,VWS V14.00,2013-03-22 09:57:00,
2013-03-22 03:59:00,66.0,32.0,27.20,SSW,192,0.0,0.0,28,0.00,,,0.00,VWS V14.00,2013-03-22 09:59:00,
2013-03-22 04:02:00,66.2,31.3,27.20,SSW,192,0.0,0.0,27,0.00,,,0.00,VWS V14.00,2013-03-22 10:02:00,
2013-03-22 04:03:00,66.2,31.3,27.20,SSW,207,0.0,0.0,27,0.00,,,0.00,VWS V14.00,2013-03-22 10:03:00,
2013-03-22 04:05:00,66.2,31.3,27.20,SSW,195,0.0,0.0,27,0.00,,,0.00,VWS V14.00,2013-03-22 10:05:00,
2013-03-22 04:06:00,66.4,31.4,27.20,SW,216,0.0,0.0,27,0.00,,,0.00,VWS V14.00,2013-03-22 10:06:00,
2013-03-22 04:08:00,66.2,31.3,27.20,SSW,196,0.0,0.0,27,0.00,,,0.00,VWS V14.00,2013-03-22 10:08:00,
2013-03-22 04:10:00,66.2,31.3,27.20,South,186,0.0,0.0,27,0.00,,,0.00,VWS V14.00,2013-03-22 10:10:00,
2013-03-22 04:11:00,66.4,31.4,27.20,SSW,206,0.0,0.0,27,0.00,,,0.00,VWS V14.00,2013-03-22 10:11:00,
2013-03-22 04:14:00,66.4,31.4,27.20,South,191,0.0,0.0,27,0.00,,,0.00,VWS V14.00,2013-03-22 10:14:00,
2013-03-22 04:16:00,66.4,31.4,27.20,South,191,0.0,0.0,27,0.00,,,0.00,VWS V14.00,2013-03-22 10:16:00,
2013-03-22 04:18:00,66.4,31.4,27.20,South,182,0.0,0.0,27,0.00,,,0.00,VWS V14.00,2013-03-22 10:18:00,
2013-03-22 04:19:00,66.4,31.4,27.20,SSW,194,0.0,0.0,27,0.00,,,0.00,VWS V14.00,2013-03-22 10:19:00,
2013-03-22 04:20:00,66.4,31.4,27.20,SSW,194,0.0,0.0,27,0.00,,,0.00,VWS V14.00,2013-03-22 10:20:00,
2013-03-22 04:21:00,66.4,31.4,27.20,SSW,200,0.0,0.0,27,0.00,,,0.00,VWS V14.00,2013-03-22 10:21:00,
2013-03-22 04:23:00,66.4,31.4,27.20,South,188,0.0,0.0,27,0.00,,,0.00,VWS V14.00,2013-03-22 10:23:00,
2013-03-22 04:24:00,66.4,31.4,27.20,South,185,0.0,0.0,27,0.00,,,0.00,VWS V14.00,2013-03-22 10:24:00,
2013-03-22 04:26:00,66.4,31.4,27.20,South,187,0.0,0.0,27,0.00,,,0.00,VWS V14.00,2013-03-22 10:26:00,
2013-03-22 04:27:00,66.4,31.4,27.20,South,175,0.0,0.0,27,0.00,,,0.00,VWS V14.00,2013-03-22 10:27:00,
2013-03-22 04:29:00,66.6,31.6,27.20,South,186,0.0,0.0,27,0.00,,,0.00,VWS V14.00,2013-03-22 10:29:00,
2013-03-22 04:32:00,66.6,31.6,27.20,SSW,197,3.1,5.4,27,0.00,,,0.00,VWS V14.00,2013-03-22 10:32:00,
2013-03-22 04:33:00,66.6,31.6,27.20,SW,216,3.6,5.4,27,0.00,,,0.00,VWS V14.00,2013-03-22 10:33:00,
2013-03-22 04:34:00,66.6,31.6,27.20,SSW,203,4.9,5.8,27,0.00,,,0.00,VWS V14.00,2013-03-22 10:34:00,
2013-03-22 04:37:00,66.7,31.7,27.20,SSW,206,4.0,6.3,27,0.00,,,0.00,VWS V14.00,2013-03-22 10:37:00,
2013-03-22 04:38:00,66.7,31.7,27.20,SSW,198,4.0,6.3,27,0.00,,,0.00,VWS V14.00,2013-03-22 10:38:00,
2013-03-22 04:39:00,66.7,31.7,27.20,South,187,6.3,6.3,27,0.00,,,0.00,VWS V14.00,2013-03-22 10:39:00,
2013-03-22 04:42:00,66.6,31.6,27.20,SSW,193,3.1,6.3,27,0.00,,,0.00,VWS V14.00,2013-03-22 10:42:00,
2013-03-22 04:44:00,66.7,31.7,27.20,SSW,208,3.1,6.3,27,0.00,,,0.00,VWS V14.00,2013-03-22 10:44:00,
2013-03-22 04:45:00,66.7,31.7,27.20,SSW,206,5.8,6.3,27,0.00,,,0.00,VWS V14.00,2013-03-22 10:45:00,
2013-03-22 04:47:00,66.7,31.7,27.20,SSW,197,5.4,6.7,27,0.00,,,0.00,VWS V14.00,2013-03-22 10:47:00,
2013-03-22 04:49:00,66.7,31.7,27.20,South,186,5.4,6.7,27,0.00,,,0.00,VWS V14.00,2013-03-22 10:49:00,
2013-03-22 04:50:00,66.7,31.7,27.20,South,186,5.4,6.7,27,0.00,,,0.00,VWS V14.00,2013-03-22 10:50:00,
2013-03-22 04:53:00,66.9,31.0,27.20,SSW,198,5.8,7.2,26,0.00,,,0.00,VWS V14.00,2013-03-22 10:53:00,
2013-03-22 04:55:00,66.9,31.0,27.20,South,189,5.8,7.2,26,0.00,,,0.00,VWS V14.00,2013-03-22 10:55:00,
2013-03-22 04:56:00,66.9,31.0,27.20,SW,214,3.6,7.2,26,0.00,,,0.00,VWS V14.00,2013-03-22 10:56:00,
2013-03-22 04:59:00,66.9,31.9,27.20,SSW,194,4.0,7.2,27,0.00,,,0.00,VWS V14.00,2013-03-22 10:59:00,
2013-03-22 05:00:00,66.9,31.9,27.20,SSW,199,5.8,7.2,27,0.00,,,0.00,VWS V14.00,2013-03-22 11:00:00,
2013-03-22 05:02:00,66.9,31.9,27.20,SSW,206,3.6,4.9,27,0.00,,,0.00,VWS V14.00,2013-03-22 11:02:00,
2013-03-22 05:04:00,66.9,31.9,27.20,South,189,5.4,6.3,27,0.00,,,0.00,VWS V14.00,2013-03-22 11:04:00,
2013-03-22 05:05:00,66.9,31.9,27.20,SSW,206,4.0,6.3,27,0.00,,,0.00,VWS V14.00,2013-03-22 11:05:00,
2013-03-22 05:07:00,66.9,31.9,27.20,South,190,5.8,6.7,27,0.00,,,0.00,VWS V14.00,2013-03-22 11:07:00,
2013-03-22 05:10:00,66.9,31.9,27.20,SSW,202,4.9,7.6,27,0.00,,,0.00,VWS V14.00,2013-03-22 11:10:00,
2013-03-22 05:12:00,66.7,31.7,27.20,SSW,201,2.7,7.6,27,0.00,,,0.00,VWS V14.00,2013-03-22 11:12:00,
2013-03-22 05:13:00,66.7,32.6,27.20,SW,233,5.8,7.6,28,0.00,,,0.00,VWS V14.00,2013-03-22 11:13:00,
2013-03-22 05:15:00,66.7,32.6,27.20,South,183,5.8,7.6,28,0.00,,,0.00,VWS V14.00,2013-03-22 11:15:00,
2013-03-22 05:17:00,66.7,32.6,27.20,South,180,4.0,6.3,28,0.00,,,0.00,VWS V14.00,2013-03-22 11:17:00,
2013-03-22 05:18:00,66.7,32.6,27.20,SSW,192,4.0,6.3,28,0.00,,,0.00,VWS V14.00,2013-03-22 11:18:00,
2013-03-22 05:20:00,66.6,32.5,27.20,SSW,192,3.1,6.3,28,0.00,,,0.00,VWS V14.00,2013-03-22 11:20:00,
2013-03-22 05:23:00,66.6,32.5,27.20,SSW,203,0.0,6.3,28,0.00,,,0.00,VWS V14.00,2013-03-22 11:23:00,
2013-03-22 05:25:00,66.7,32.6,27.20,SSW,203,3.6,6.3,28,0.00,,,0.00,VWS V14.00,2013-03-22 11:25:00,
2013-03-22 05:28:00,66.7,32.6,27.20,SSW,207,4.9,6.3,28,0.00,,,0.00,VWS V14.00,2013-03-22 11:28:00,
2013-03-22 05:30:00,66.6,32.5,27.20,SSW,194,4.5,5.4,28,0.00,,,0.00,VWS V14.00,2013-03-22 11:30:00,
2013-03-22 05:33:00,66.6,33.3,27.20,SSW,213,5.4,5.8,29,0.00,,,0.00,VWS V14.00,2013-03-22 11:33:00,
2013-03-22 05:34:00,66.6,33.3,27.20,SSW,202,4.0,5.8,29,0.00,,,0.00,VWS V14.00,2013-03-22 11:34:00,
2013-03-22 05:36:00,66.6,33.3,27.20,SSW,198,5.4,5.8,29,0.00,,,0.00,VWS V14.00,2013-03-22 11:36:00,
2013-03-22 05:39:00,66.6,33.3,27.20,South,191,0.0,5.8,29,0.00,,,0.00,VWS V14.00,2013-03-22 11:39:00,
2013-03-22 05:41:00,66.4,33.2,27.20,South,191,2.7,5.8,29,0.00,,,0.00,VWS V14.00,2013-03-22 11:41:00,
2013-03-22 05:43:00,66.6,33.3,27.20,SSW,211,3.1,5.8,29,0.00,,,0.00,VWS V14.00,2013-03-22 11:43:00,
2013-03-22 05:44:00,66.6,33.3,27.20,SSW,211,3.1,5.8,29,0.00,,,0.00,VWS V14.00,2013-03-22 11:44:00,
2013-03-22 05:45:00,66.6,33.3,27.20,SSW,210,4.0,5.8,29,0.00,,,0.00,VWS V14.00,2013-03-22 11:45:00,
2013-03-22 05:47:00,66.6,33.3,27.20,SSW,209,3.6,4.0,29,0.00,,,0.00,VWS V14.00,2013-03-22 11:47:00,
2013-03-22 05:49:00,66.6,33.3,27.20,SSW,196,4.5,4.5,29,0.00,,,0.00,VWS V14.00,2013-03-22 11:49:00,
2013-03-22 05:50:00,66.6,33.3,27.20,SSW,196,3.6,4.5,29,0.00,,,0.00,VWS V14.00,2013-03-22 11:50:00,
2013-03-22 05:52:00,66.4,33.2,27.20,SSW,198,4.0,4.9,29,0.00,,,0.00,VWS V14.00,2013-03-22 11:52:00,
2013-03-22 05:54:00,66.6,34.2,27.20,South,183,8.3,8.3,30,0.00,,,0.00,VWS V14.00,2013-03-22 11:54:00,
2013-03-22 05:55:00,66.6,34.2,27.20,South,184,5.4,8.3,30,0.00,,,0.00,VWS V14.00,2013-03-22 11:55:00,
2013-03-22 05:58:00,66.4,34.9,27.20,SSW,204,5.4,8.3,31,0.00,,,0.00,VWS V14.00,2013-03-22 11:58:00,
2013-03-22 05:59:00,66.2,34.7,27.20,SSW,193,4.9,8.3,31,0.00,,,0.00,VWS V14.00,2013-03-22 11:59:00,
2013-03-22 06:00:00,66.2,34.7,27.20,South,188,3.6,5.4,31,0.00,,,0.00,VWS V14.00,2013-03-22 12:00:00,
2013-03-22 06:03:00,66.0,35.3,27.20,SSW,202,3.6,5.8,32,0.00,,,0.00,VWS V14.00,2013-03-22 12:03:00,
2013-03-22 06:05:00,66.0,35.3,27.20,SSW,199,4.9,6.3,32,0.00,,,0.00,VWS V14.00,2013-03-22 12:05:00,
2013-03-22 06:06:00,66.0,35.3,27.20,SSW,201,4.9,6.3,32,0.00,,,0.00,VWS V14.00,2013-03-22 12:06:00,
2013-03-22 06:07:00,65.8,36.0,27.20,SSW,195,5.4,6.3,33,0.00,,,0.00,VWS V14.00,2013-03-22 12:07:00,
2013-03-22 06:08:00,65.7,35.8,27.20,SSW,212,3.6,6.3,33,0.00,,,0.00,VWS V14.00,2013-03-22 12:08:00,
2013-03-22 06:10:00,65.8,36.0,27.20,South,177,5.8,6.3,33,0.00,,,0.00,VWS V14.00,2013-03-22 12:10:00,
2013-03-22 06:11:00,65.8,36.7,27.20,South,184,6.3,6.3,34,0.00,,,0.00,VWS V14.00,2013-03-22 12:11:00,
2013-03-22 06:13:00,65.7,36.6,27.20,South,189,6.3,6.3,34,0.00,,,0.00,VWS V14.00,2013-03-22 12:13:00,
2013-03-22 06:15:00,65.7,36.6,27.20,South,181,5.8,6.3,34,0.00,,,0.00,VWS V14.00,2013-03-22 12:15:00,
2013-03-22 06:16:00,65.7,36.6,27.20,SSW,213,5.4,5.8,34,0.00,,,0.00,VWS V14.00,2013-03-22 12:16:00,
2013-03-22 06:18:00,65.5,36.4,27.20,South,181,6.3,6.3,34,0.00,,,0.00,VWS V14.00,2013-03-22 12:18:00,
2013-03-22 06:21:00,65.7,38.0,27.20,SSW,192,6.3,6.3,36,0.00,,,0.00,VWS V14.00,2013-03-22 12:21:00,
2013-03-22 06:22:00,65.7,38.0,27.20,SSW,195,4.9,6.7,36,0.00,,,0.00,VWS V14.00,2013-03-22 12:22:00,
2013-03-22 06:24:00,65.5,37.1,27.20,South,178,6.3,6.7,35,0.00,,,0.00,VWS V14.00,2013-03-22 12:24:00,
2013-03-22 06:25:00,65.5,37.1,27.20,South,185,4.0,6.7,35,0.00,,,0.00,VWS V14.00,2013-03-22 12:25:00,
2013-03-22 06:26:00,65.1,36.8,27.20,SSW,206,5.8,6.7,35,0.00,,,0.00,VWS V14.00,2013-03-22 12:26:00,
2013-03-22 06:27:00,65.1,37.5,27.20,SSW,200,3.6,6.7,36,0.00,,,0.00,VWS V14.00,2013-03-22 12:27:00,
2013-03-22 06:30:00,65.3,38.4,27.20,SSW,204,5.4,6.7,37,0.00,,,0.00,VWS V14.00,2013-03-22 12:30:00,
2013-03-22 06:32:00,65.1,38.2,27.20,SSW,209,3.6,5.4,37,0.00,,,0.00,VWS V14.00,2013-03-22 12:32:00,
2013-03-22 06:33:00,65.1,38.2,27.20,South,180,4.9,5.4,37,0.00,,,0.00,VWS V14.00,2013-03-22 12:33:00,
2013-03-22 06:37:00,65.1,40.2,27.20,SSW,198,5.4,5.8,40,0.00,,,0.00,VWS V14.00,2013-03-22 12:37:00,
2013-03-22 06:38:00,65.1,40.2,27.20,SSW,193,4.0,5.8,40,0.00,,,0.00,VWS V14.00,2013-03-22 12:38:00,
2013-03-22 06:39:00,65.1,40.2,27.20,SSW,193,4.0,5.8,40,0.00,,,0.00,VWS V14.00,2013-03-22 12:39:00,
2013-03-22 06:42:00,64.9,39.4,27.20,SSW,195,2.7,7.2,39,0.00,,,0.00,VWS V14.00,2013-03-22 12:42:00,
2013-03-22 06:43:00,65.1,38.9,27.20,South,180,5.8,7.2,38,0.00,,,0.00,VWS V14.00,2013-03-22 12:43:00,
2013-03-22 06:44:00,65.1,39.6,27.20,South,189,5.4,7.2,39,0.00,,,0.00,VWS V14.00,2013-03-22 12:44:00,
2013-03-22 06:48:00,65.3,39.1,27.20,SSW,199,4.9,5.4,38,0.00,,,0.00,VWS V14.00,2013-03-22 12:48:00,
2013-03-22 06:49:00,65.3,39.1,27.20,SSW,197,2.7,5.4,38,0.00,,,0.00,VWS V14.00,2013-03-22 12:49:00,
2013-03-22 06:53:00,65.5,37.1,27.20,South,180,5.4,6.3,35,0.00,,,0.00,VWS V14.00,2013-03-22 12:53:00,
2013-03-22 06:54:00,65.5,37.1,27.20,South,183,5.8,6.3,35,0.00,,,0.00,VWS V14.00,2013-03-22 12:54:00,
2013-03-22 06:55:00,65.5,37.1,27.20,South,184,3.1,6.3,35,0.00,,,0.00,VWS V14.00,2013-03-22 12:55:00,
2013-03-22 06:58:00,65.5,36.4,27.20,South,189,5.8,6.3,34,0.00,,,0.00,VWS V14.00,2013-03-22 12:58:00,
2013-03-22 07:00:00,65.7,37.3,27.20,South,191,5.4,6.3,35,0.00,,,0.00,VWS V14.00,2013-03-22 13:00:00,
2013-03-22 07:03:00,65.7,36.6,27.20,SSW,192,4.0,5.4,34,0.00,,,0.00,VWS V14.00,2013-03-22 13:03:00,
2013-03-22 07:04:00,65.8,36.7,27.23,SSW,206,4.0,5.4,34,0.00,,,0.00,VWS V14.00,2013-03-22 13:04:00,
2013-03-22 07:05:00,65.8,36.0,27.23,SW,225,2.7,5.4,33,0.00,,,0.00,VWS V14.00,2013-03-22 13:05:00,
2013-03-22 07:08:00,66.0,35.3,27.23,SSW,213,4.0,5.4,32,0.00,,,0.00,VWS V14.00,2013-03-22 13:08:00,
2013-03-22 07:09:00,66.0,35.3,27.23,SSW,213,3.1,5.4,32,0.00,,,0.00,VWS V14.00,2013-03-22 13:09:00,
2013-03-22 07:10:00,66.0,34.5,27.23,SSW,213,3.1,5.4,31,0.00,,,0.00,VWS V14.00,2013-03-22 13:10:00,
2013-03-22 07:13:00,66.2,33.9,27.23,SSW,213,3.6,5.4,30,0.00,,,0.00,VWS V14.00,2013-03-22 13:13:00,
2013-03-22 07:14:00,66.2,33.9,27.23,SSW,213,2.7,5.4,30,0.00,,,0.00,VWS V14.00,2013-03-22 13:14:00,
2013-03-22 07:15:00,66.4,34.0,27.23,SSW,213,2.7,5.4,30,0.00,,,0.00,VWS V14.00,2013-03-22 13:15:00,
2013-03-22 07:17:00,66.4,34.0,27.23,SSW,208,3.6,5.4,30,0.00,,,0.00,VWS V14.00,2013-03-22 13:17:00,
2013-03-22 07:18:00,66.6,33.3,27.23,SSW,203,3.6,5.4,29,0.00,,,0.00,VWS V14.00,2013-03-22 13:18:00,
2013-03-22 07:19:00,66.6,33.3,27.23,South,184,5.4,5.8,29,0.00,,,0.00,VWS V14.00,2013-03-22 13:19:00,
2013-03-22 07:21:00,66.7,33.5,27.23,SSW,196,4.9,6.3,29,0.00,,,0.00,VWS V14.00,2013-03-22 13:21:00,
2013-03-22 07:23:00,66.9,33.7,27.23,SW,221,5.4,6.3,29,0.00,,,0.00,VWS V14.00,2013-03-22 13:23:00,
2013-03-22 07:25:00,66.9,32.8,27.23,South,189,5.8,6.3,28,0.00,,,0.00,VWS V14.00,2013-03-22 13:25:00,
2013-03-22 07:27:00,67.1,32.9,27.23,South,182,5.4,6.3,28,0.00,,,0.00,VWS V14.00,2013-03-22 13:27:00,
2013-03-22 07:28:00,67.1,32.9,27.23,SSW,211,3.6,6.3,28,0.00,,,0.00,VWS V14.00,2013-03-22 13:28:00,
2013-03-22 07:30:00,67.1,32.9,27.23,SSW,206,4.0,6.3,28,0.00,,,0.00,VWS V14.00,2013-03-22 13:30:00,
2013-03-22 07:31:00,67.3,33.1,27.23,South,191,2.7,6.3,28,0.00,,,0.00,VWS V14.00,2013-03-22 13:31:00,
2013-03-22 07:32:00,67.3,32.2,27.23,SSW,195,4.0,6.3,27,0.00,,,0.00,VWS V14.00,2013-03-22 13:32:00,
2013-03-22 07:34:00,67.3,32.2,27.23,SSW,202,7.6,7.6,27,0.00,,,0.00,VWS V14.00,2013-03-22 13:34:00,
2013-03-22 07:36:00,67.5,32.3,27.23,SSW,200,4.0,7.6,27,0.00,,,0.00,VWS V14.00,2013-03-22 13:36:00,
2013-03-22 07:37:00,67.5,32.3,27.23,SW,224,3.1,7.6,27,0.00,,,0.00,VWS V14.00,2013-03-22 13:37:00,
2013-03-22 07:38:00,67.5,32.3,27.23,SW,215,3.6,7.6,27,0.00,,,0.00,VWS V14.00,2013-03-22 13:38:00,
2013-03-22 07:39:00,67.5,32.3,27.23,SW,214,3.6,7.6,27,0.00,,,0.00,VWS V14.00,2013-03-22 13:39:00,
2013-03-22 07:41:00,67.5,32.3,27.23,SSW,205,4.0,7.6,27,0.00,,,0.00,VWS V14.00,2013-03-22 13:41:00,
2013-03-22 07:43:00,67.5,32.3,27.23,SSW,205,2.7,7.6,27,0.00,,,0.00,VWS V14.00,2013-03-22 13:43:00,
2013-03-22 07:45:00,67.6,32.5,27.23,SSW,205,0.0,7.6,27,0.00,,,0.00,VWS V14.00,2013-03-22 13:45:00,
2013-03-22 07:48:00,67.8,32.7,27.23,SSW,205,0.0,0.0,27,0.00,,,0.00,VWS V14.00,2013-03-22 13:48:00,
2013-03-22 07:49:00,67.8,32.7,27.23,SSW,205,2.7,2.7,27,0.00,,,0.00,VWS V14.00,2013-03-22 13:49:00,
2013-03-22 07:50:00,67.8,32.7,27.23,SSW,194,4.0,5.4,27,0.00,,,0.00,VWS V14.00,2013-03-22 13:50:00,
2013-03-22 07:51:00,67.8,31.7,27.23,SSW,193,3.1,5.4,26,0.00,,,0.00,VWS V14.00,2013-03-22 13:51:00,
2013-03-22 07:53:00,67.8,31.7,27.23,SW,230,5.8,5.8,26,0.00,,,0.00,VWS V14.00,2013-03-22 13:53:00,
2013-03-22 07:55:00,68.0,30.9,27.23,SSW,193,6.3,6.3,25,0.00,,,0.00,VWS V14.00,2013-03-22 13:55:00,
2013-03-22 07:57:00,68.0,30.9,27.23,SSW,199,5.8,7.6,25,0.00,,,0.00,VWS V14.00,2013-03-22 13:57:00,
2013-03-22 07:59:00,68.2,30.0,27.23,SSW,211,4.0,7.6,24,0.00,,,0.00,VWS V14.00,2013-03-22 13:59:00,
2013-03-22 08:01:00,68.2,30.0,27.23,SSW,213,5.8,5.8,24,0.00,,,0.00,VWS V14.00,2013-03-22 14:01:00,
2013-03-22 08:02:00,68.4,30.2,27.23,SSW,205,2.7,6.3,24,0.00,,,0.00,VWS V14.00,2013-03-22 14:02:00,
2013-03-22 08:05:00,68.5,30.4,27.23,SSW,202,0.0,6.3,24,0.00,,,0.00,VWS V14.00,2013-03-22 14:05:00,
2013-03-22 08:06:00,68.5,29.3,27.23,South,189,3.6,6.3,23,0.00,,,0.00,VWS V14.00,2013-03-22 14:06:00,
2013-03-22 08:07:00,68.5,29.3,27.23,SSW,193,5.8,6.3,23,0.00,,,0.00,VWS V14.00,2013-03-22 14:07:00,
2013-03-22 08:10:00,68.4,29.1,27.23,South,189,5.8,8.3,23,0.00,,,0.00,VWS V14.00,2013-03-22 14:10:00,
2013-03-22 08:13:00,68.5,29.3,27.23,SSW,193,4.5,8.3,23,0.00,,,0.00,VWS V14.00,2013-03-22 14:13:00,
2013-03-22 08:15:00,68.9,29.6,27.23,SSW,210,8.1,8.3,23,0.00,,,0.00,VWS V14.00,2013-03-22 14:15:00,
2013-03-22 08:18:00,69.1,28.7,27.26,South,180,5.4,8.1,22,0.00,,,0.00,VWS V14.00,2013-03-22 14:18:00,
2013-03-22 08:19:00,69.1,28.7,27.26,SSE,154,3.1,8.1,22,0.00,,,0.00,VWS V14.00,2013-03-22 14:19:00,
2013-03-22 08:23:00,69.8,28.1,27.26,SSW,210,0.0,8.1,21,0.00,,,0.00,VWS V14.00,2013-03-22 14:23:00,
2013-03-22 08:24:00,70.2,27.2,27.26,SSW,210,4.0,8.1,20,0.00,,,0.00,VWS V14.00,2013-03-22 14:24:00,
2013-03-22 08:28:00,71.1,28.0,27.26,WNW,298,4.9,8.1,20,0.00,,,0.00,VWS V14.00,2013-03-22 14:28:00,
2013-03-22 08:29:00,71.1,26.8,27.26,NW,308,0.0,8.1,19,0.00,,,0.00,VWS V14.00,2013-03-22 14:29:00,
2013-03-22 08:30:00,71.1,26.8,27.26,NW,310,3.6,8.1,19,0.00,,,0.00,VWS V14.00,2013-03-22 14:30:00,
2013-03-22 08:33:00,71.2,26.9,27.26,NW,310,3.6,4.9,19,0.00,,,0.00,VWS V14.00,2013-03-22 14:33:00,
2013-03-22 08:35:00,71.1,26.8,27.26,NW,308,3.1,4.9,19,0.00,,,0.00,VWS V14.00,2013-03-22 14:35:00,
2013-03-22 08:36:00,71.1,26.8,27.26,NW,308,3.6,4.9,19,0.00,,,0.00,VWS V14.00,2013-03-22 14:36:00,
2013-03-22 08:37:00,71.1,26.8,27.26,NW,308,3.6,4.9,19,0.00,,,0.00,VWS V14.00,2013-03-22 14:37:00,
2013-03-22 08:38:00,71.1,26.8,27.26,NW,311,4.0,5.4,19,0.00,,,0.00,VWS V14.00,2013-03-22 14:38:00,
2013-03-22 08:41:00,70.5,26.3,27.26,NNW,333,6.3,7.6,19,0.00,,,0.00,VWS V14.00,2013-03-22 14:41:00,
2013-03-22 08:42:00,70.2,26.0,27.26,NW,316,6.3,8.1,19,0.00,,,0.00,VWS V14.00,2013-03-22 14:42:00,
2013-03-22 08:43:00,70.0,25.9,27.26,NNW,346,3.6,8.1,19,0.00,,,0.00,VWS V14.00,2013-03-22 14:43:00,
2013-03-22 08:47:00,69.1,26.4,27.26,NW,317,3.6,7.6,20,0.00,,,0.00,VWS V14.00,2013-03-22 14:47:00,
2013-03-22 08:49:00,68.9,27.4,27.26,NW,315,3.1,7.6,21,0.00,,,0.00,VWS V14.00,2013-03-22 14:49:00,
2013-03-22 08:52:00,68.7,28.4,27.26,NNW,336,2.7,8.7,22,0.00,,,0.00,VWS V14.00,2013-03-22 14:52:00,
2013-03-22 08:54:00,68.5,28.2,27.26,NNW,333,6.3,8.7,22,0.00,,,0.00,VWS V14.00,2013-03-22 14:54:00,
2013-03-22 08:55:00,68.5,28.2,27.26,North,357,5.8,8.7,22,0.00,,,0.00,VWS V14.00,2013-03-22 14:55:00,
2013-03-22 08:57:00,68.5,29.3,27.26,NW,315,3.6,8.7,23,0.00,,,0.00,VWS V14.00,2013-03-22 14:57:00,
2013-03-22 08:59:00,68.7,29.5,27.26,NW,325,5.4,8.7,23,0.00,,,0.00,VWS V14.00,2013-03-22 14:59:00,
2013-03-22 09:02:00,69.4,30.1,27.26,North,357,4.0,4.0,23,0.00,,,0.00,VWS V14.00,2013-03-22 15:02:00,
2013-03-22 09:04:00,69.6,28.0,27.26,North,3,5.8,6.3,21,0.00,,,0.00,VWS V14.00,2013-03-22 15:04:00,
2013-03-22 09:08:00,70.3,27.4,27.26,NNW,338,4.0,6.3,20,0.00,,,0.00,VWS V14.00,2013-03-22 15:08:00,
2013-03-22 09:09:00,70.9,26.6,27.26,North,0,3.6,6.3,19,0.00,,,0.00,VWS V14.00,2013-03-22 15:09:00,
2013-03-22 09:10:00,70.9,26.6,27.26,North,0,3.6,6.3,19,0.00,,,0.00,VWS V14.00,2013-03-22 15:10:00,
2013-03-22 09:14:00,70.5,26.3,27.26,NNW,345,2.7,6.3,19,0.00,,,0.00,VWS V14.00,2013-03-22 15:14:00,
2013-03-22 09:15:00,70.3,26.2,27.26,NNW,339,0.0,6.3,19,0.00,,,0.00,VWS V14.00,2013-03-22 15:15:00,
2013-03-22 09:20:00,70.3,26.2,27.29,North,353,3.1,7.6,19,0.00,,,0.00,VWS V14.00,2013-03-22 15:20:00,
2013-03-22 09:21:00,70.3,26.2,27.29,NNW,330,2.7,7.6,19,0.00,,,0.00,VWS V14.00,2013-03-22 15:21:00,
2013-03-22 09:25:00,70.2,26.0,27.29,North,353,0.0,7.6,19,0.00,,,0.00,VWS V14.00,2013-03-22 15:25:00,
2013-03-22 09:27:00,70.2,26.0,27.29,NNE,22,3.1,7.6,19,0.00,,,0.00,VWS V14.00,2013-03-22 15:27:00,
2013-03-22 09:29:00,70.0,25.9,27.29,NW,313,4.9,7.6,19,0.00,,,0.00,VWS V14.00,2013-03-22 15:29:00,
2013-03-22 09:30:00,70.2,26.0,27.29,NW,326,4.9,5.8,19,0.00,,,0.00,VWS V14.00,2013-03-22 15:30:00,
2013-03-22 09:31:00,70.2,26.0,27.29,North,0,3.1,5.8,19,0.00,,,0.00,VWS V14.00,2013-03-22 15:31:00,
2013-03-22 09:33:00,70.2,26.0,27.29,North,8,3.6,6.3,19,0.00,,,0.00,VWS V14.00,2013-03-22 15:33:00,
2013-03-22 09:35:00,69.8,25.7,27.29,NE,40,3.1,6.3,19,0.00,,,0.00,VWS V14.00,2013-03-22 15:35:00,
2013-03-22 09:36:00,69.8,25.7,27.29,NE,35,3.6,6.3,19,0.00,,,0.00,VWS V14.00,2013-03-22 15:36:00,
2013-03-22 09:38:00,70.3,26.2,27.29,NE,34,2.2,6.3,19,0.00,,,0.00,VWS V14.00,2013-03-22 15:38:00,
2013-03-22 09:41:00,71.2,26.9,27.29,NNE,19,3.6,6.3,19,0.00,,,0.00,VWS V14.00,2013-03-22 15:41:00,
2013-03-22 09:42:00,72.0,26.2,27.29,NNW,331,3.1,6.3,18,0.00,,,0.00,VWS V14.00,2013-03-22 15:42:00,
2013-03-22 09:43:00,72.3,26.5,27.29,NNW,331,2.7,6.3,18,0.00,,,0.00,VWS V14.00,2013-03-22 15:43:00,
2013-03-22 09:46:00,73.8,26.3,27.29,North,353,3.1,3.1,17,0.00,,,0.00,VWS V14.00,2013-03-22 15:46:00,
2013-03-22 09:47:00,73.9,26.4,27.29,North,0,2.7,4.0,17,0.00,,,0.00,VWS V14.00,2013-03-22 15:47:00,
2013-03-22 09:48:00,73.9,26.4,27.29,North,4,3.6,4.0,17,0.00,,,0.00,VWS V14.00,2013-03-22 15:48:00,
2013-03-22 09:52:00,73.8,26.3,27.29,NNW,336,5.4,6.3,17,0.00,,,0.00,VWS V14.00,2013-03-22 15:52:00,
2013-03-22 09:53:00,73.8,26.3,27.29,North,350,5.4,6.3,17,0.00,,,0.00,VWS V14.00,2013-03-22 15:53:00,
2013-03-22 09:54:00,73.4,26.0,27.29,NNW,331,4.0,6.3,17,0.00,,,0.00,VWS V14.00,2013-03-22 15:54:00,
2013-03-22 09:58:00,73.0,25.7,27.29,NNW,343,4.9,6.3,17,0.00,,,0.00,VWS V14.00,2013-03-22 15:58:00,
2013-03-22 09:59:00,72.9,25.5,27.29,NNE,20,4.0,6.3,17,0.00,,,0.00,VWS V14.00,2013-03-22 15:59:00,
2013-03-22 10:03:00,73.6,26.1,27.29,NNW,335,2.7,5.8,17,0.00,,,0.00,VWS V14.00,2013-03-22 16:03:00,
2013-03-22 10:04:00,73.9,26.4,27.29,North,3,4.5,5.8,17,0.00,,,0.00,VWS V14.00,2013-03-22 16:04:00,
2013-03-22 10:08:00,75.2,26.0,27.29,North,7,4.0,5.8,16,0.00,,,0.00,VWS V14.00,2013-03-22 16:08:00,
2013-03-22 10:09:00,75.2,26.0,27.29,North,7,4.0,5.8,16,0.00,,,0.00,VWS V14.00,2013-03-22 16:09:00,
2013-03-22 10:10:00,75.4,26.1,27.29,North,357,3.6,5.8,16,0.00,,,0.00,VWS V14.00,2013-03-22 16:10:00,
2013-03-22 10:14:00,77.0,27.4,27.29,NW,326,3.1,5.8,16,0.00,,,0.00,VWS V14.00,2013-03-22 16:14:00,
2013-03-22 10:15:00,77.4,27.7,27.29,NNW,329,3.6,5.8,16,0.00,,,0.00,VWS V14.00,2013-03-22 16:15:00,
2013-03-22 10:19:00,78.8,27.3,27.29,North,353,4.5,6.3,15,0.00,,,0.00,VWS V14.00,2013-03-22 16:19:00,
2013-03-22 10:20:00,78.8,27.3,27.29,North,353,2.7,6.3,15,0.00,,,0.00,VWS V14.00,2013-03-22 16:20:00,
2013-03-22 10:21:00,78.6,28.7,27.29,NNW,336,4.0,6.3,16,0.00,,,0.00,VWS V14.00,2013-03-22 16:21:00,
2013-03-22 10:23:00,78.3,28.4,27.29,WSW,249,3.1,6.3,16,0.00,,,0.00,VWS V14.00,2013-03-22 16:23:00,
2013-03-22 10:24:00,77.7,28.0,27.29,WSW,249,2.2,6.3,16,0.00,,,0.00,VWS V14.00,2013-03-22 16:24:00,
2013-03-22 10:25:00,77.7,28.0,27.29,WSW,249,0.0,6.3,16,0.00,,,0.00,VWS V14.00,2013-03-22 16:25:00,
2013-03-22 10:27:00,78.4,28.6,27.29,WSW,249,0.0,6.3,16,0.00,,,0.00,VWS V14.00,2013-03-22 16:27:00,
2013-03-22 10:28:00,81.5,29.4,27.29,SW,231,3.6,6.3,15,0.00,,,0.00,VWS V14.00,2013-03-22 16:28:00,
2013-03-22 10:29:00,81.5,29.4,27.29,SW,231,2.7,6.3,15,0.00,,,0.00,VWS V14.00,2013-03-22 16:29:00,
2013-03-22 10:30:00,81.7,29.6,27.29,SSW,203,2.7,4.0,15,0.00,,,0.00,VWS V14.00,2013-03-22 16:30:00,
2013-03-22 10:33:00,81.0,29.0,27.29,SSW,203,4.0,5.8,15,0.00,,,0.00,VWS V14.00,2013-03-22 16:33:00,
2013-03-22 10:35:00,82.2,30.0,27.29,SSW,205,0.0,5.8,15,0.00,,,0.00,VWS V14.00,2013-03-22 16:35:00,
2013-03-22 10:36:00,82.4,28.5,27.29,SSW,210,6.3,6.3,14,0.00,,,0.00,VWS V14.00,2013-03-22 16:36:00,
2013-03-22 10:38:00,81.9,29.7,27.29,WNW,301,3.6,6.3,15,0.00,,,0.00,VWS V14.00,2013-03-22 16:38:00,
2013-03-22 10:40:00,81.9,29.7,27.29,NW,307,0.0,6.3,15,0.00,,,0.00,VWS V14.00,2013-03-22 16:40:00,
2013-03-22 10:42:00,81.0,29.0,27.29,WNW,298,2.7,6.3,15,0.00,,,0.00,VWS V14.00,2013-03-22 16:42:00,
2013-03-22 10:43:00,80.4,28.6,27.29,NW,315,8.1,8.1,15,0.00,,,0.00,VWS V14.00,2013-03-22 16:43:00,
2013-03-22 10:45:00,77.9,28.1,27.29,North,357,3.6,8.7,16,0.00,,,0.00,VWS V14.00,2013-03-22 16:45:00,
2013-03-22 10:47:00,73.8,24.8,27.29,NNE,18,5.8,8.3,16,0.00,,,0.00,VWS V14.00,2013-03-22 16:47:00,
2013-03-22 10:49:00,72.5,25.2,27.32,North,353,10.5,10.5,17,0.00,,,0.00,VWS V14.00,2013-03-22 16:49:00,
2013-03-22 10:50:00,72.1,25.0,27.32,North,357,6.3,10.5,17,0.00,,,0.00,VWS V14.00,2013-03-22 16:50:00,
2013-03-22 10:53:00,72.0,24.8,27.32,NNE,23,5.8,10.5,17,0.00,,,0.00,VWS V14.00,2013-03-22 16:53:00,
2013-03-22 10:54:00,72.1,25.0,27.32,North,357,4.0,10.5,17,0.00,,,0.00,VWS V14.00,2013-03-22 16:54:00,
2013-03-22 10:57:00,71.8,24.7,27.32,North,6,11.0,11.0,17,0.00,,,0.00,VWS V14.00,2013-03-22 16:57:00,
2013-03-22 10:58:00,72.5,25.2,27.32,NW,322,10.1,11.0,17,0.00,,,0.00,VWS V14.00,2013-03-22 16:58:00,
2013-03-22 10:59:00,72.7,25.4,27.32,NNE,14,10.1,11.9,17,0.00,,,0.00,VWS V14.00,2013-03-22 16:59:00,
2013-03-22 11:02:00,73.0,25.7,27.32,NW,314,6.3,11.0,17,0.00,,,0.00,VWS V14.00,2013-03-22 17:02:00,
2013-03-22 11:03:00,73.2,25.8,27.32,NW,318,5.4,11.0,17,0.00,,,0.00,VWS V14.00,2013-03-22 17:03:00,
2013-03-22 11:05:00,73.9,25.0,27.32,North,353,6.3,11.0,16,0.00,,,0.00,VWS V14.00,2013-03-22 17:05:00,
2013-03-22 11:07:00,73.4,24.5,27.32,North,350,6.3,11.4,16,0.00,,,0.00,VWS V14.00,2013-03-22 17:07:00,
2013-03-22 11:08:00,71.8,24.7,27.32,NNW,343,7.2,11.4,17,0.00,,,0.00,VWS V14.00,2013-03-22 17:08:00,
2013-03-22 11:10:00,72.3,25.1,27.32,WNW,299,5.4,11.4,17,0.00,,,0.00,VWS V14.00,2013-03-22 17:10:00,
2013-03-22 11:12:00,72.3,25.1,27.32,NNE,21,4.0,11.4,17,0.00,,,0.00,VWS V14.00,2013-03-22 17:12:00,
2013-03-22 11:13:00,72.3,25.1,27.32,North,11,5.8,11.4,17,0.00,,,0.00,VWS V14.00,2013-03-22 17:13:00,
2013-03-22 11:15:00,72.9,25.5,27.32,NW,315,5.8,11.4,17,0.00,,,0.00,VWS V14.00,2013-03-22 17:15:00,
2013-03-22 11:16:00,73.0,25.7,27.32,NNW,337,8.7,12.3,17,0.00,,,0.00,VWS V14.00,2013-03-22 17:16:00,
2013-03-22 11:18:00,74.1,25.1,27.32,North,1,5.8,12.3,16,0.00,,,0.00,VWS V14.00,2013-03-22 17:18:00,
2013-03-22 11:19:00,74.8,25.7,27.32,NNW,328,3.6,12.3,16,0.00,,,0.00,VWS V14.00,2013-03-22 17:19:00,
2013-03-22 11:20:00,75.2,26.0,27.32,NNW,331,5.4,12.3,16,0.00,,,0.00,VWS V14.00,2013-03-22 17:20:00,
2013-03-22 11:22:00,75.9,26.5,27.32,North,357,3.6,12.3,16,0.00,,,0.00,VWS V14.00,2013-03-22 17:22:00,
2013-03-22 11:23:00,76.6,27.1,27.32,NE,49,5.8,12.3,16,0.00,,,0.00,VWS V14.00,2013-03-22 17:23:00,
2013-03-22 11:26:00,77.5,27.9,27.32,North,357,6.3,12.3,16,0.00,,,0.00,VWS V14.00,2013-03-22 17:26:00,
2013-03-22 11:27:00,79.2,27.6,27.32,NNW,332,7.6,12.3,15,0.00,,,0.00,VWS V14.00,2013-03-22 17:27:00,
2013-03-22 11:28:00,79.7,28.0,27.32,North,349,6.7,12.3,15,0.00,,,0.00,VWS V14.00,2013-03-22 17:28:00,
2013-03-22 11:30:00,79.0,27.4,27.32,North,11,4.0,12.3,15,0.00,,,0.00,VWS V14.00,2013-03-22 17:30:00,
2013-03-22 11:32:00,80.1,28.3,27.32,North,8,4.9,9.6,15,0.00,,,0.00,VWS V14.00,2013-03-22 17:32:00,
2013-03-22 11:34:00,79.5,27.9,27.32,North,353,8.7,9.6,15,0.00,,,0.00,VWS V14.00,2013-03-22 17:34:00,
2013-03-22 11:35:00,78.1,28.3,27.32,NNW,334,8.1,9.6,16,0.00,,,0.00,VWS V14.00,2013-03-22 17:35:00,
2013-03-22 11:36:00,79.9,28.1,27.32,NNW,331,5.4,9.6,15,0.00,,,0.00,VWS V14.00,2013-03-22 17:36:00,
2013-03-22 11:39:00,79.9,28.1,27.32,North,357,8.3,9.6,15,0.00,,,0.00,VWS V14.00,2013-03-22 17:39:00,
2013-03-22 11:40:00,81.0,29.0,27.32,NW,311,2.7,9.6,15,0.00,,,0.00,VWS V14.00,2013-03-22 17:40:00,
2013-03-22 11:41:00,82.4,28.5,27.32,NNW,335,5.8,9.6,14,0.00,,,0.00,VWS V14.00,2013-03-22 17:41:00,
2013-03-22 11:42:00,82.4,28.5,27.32,North,353,8.3,9.6,14,0.00,,,0.00,VWS V14.00,2013-03-22 17:42:00,
2013-03-22 11:44:00,80.8,28.9,27.32,NNE,17,9.6,9.6,15,0.00,,,0.00,VWS V14.00,2013-03-22 17:44:00,
2013-03-22 11:45:00,81.3,29.3,27.32,NNW,346,5.4,5.4,15,0.00,,,0.00,VWS V14.00,2013-03-22 17:45:00,
2013-03-22 11:47:00,82.4,28.5,27.32,North,357,5.8,6.3,14,0.00,,,0.00,VWS V14.00,2013-03-22 17:47:00,
2013-03-22 11:50:00,82.6,28.6,27.32,North,0,5.4,7.6,14,0.00,,,0.00,VWS V14.00,2013-03-22 17:50:00,
2013-03-22 11:51:00,82.0,29.9,27.32,North,3,7.6,8.1,15,0.00,,,0.00,VWS V14.00,2013-03-22 17:51:00,
2013-03-22 11:53:00,81.5,29.4,27.32,North,357,6.3,9.2,15,0.00,,,0.00,VWS V14.00,2013-03-22 17:53:00,
2013-03-22 11:55:00,79.2,27.6,27.32,NNW,343,12.8,12.8,15,0.00,,,0.00,VWS V14.00,2013-03-22 17:55:00,
2013-03-22 11:56:00,80.1,28.3,27.32,NNW,330,5.4,12.8,15,0.00,,,0.00,VWS V14.00,2013-03-22 17:56:00,
2013-03-22 11:58:00,80.1,28.3,27.32,North,7,8.1,12.8,15,0.00,,,0.00,VWS V14.00,2013-03-22 17:58:00,
2013-03-22 12:00:00,79.3,27.7,27.32,NNW,338,8.1,8.3,15,0.00,,,0.00,VWS V14.00,2013-03-22 18:00:00,
2013-03-22 12:03:00,79.9,28.1,27.32,NNW,338,7.2,8.3,15,0.00,,,0.00,VWS V14.00,2013-03-22 18:03:00,
2013-03-22 12:04:00,79.9,28.1,27.32,NNE,24,9.6,9.6,15,0.00,,,0.00,VWS V14.00,2013-03-22 18:04:00,
2013-03-22 12:06:00,79.5,27.9,27.32,North,353,5.4,9.6,15,0.00,,,0.00,VWS V14.00,2013-03-22 18:06:00,
2013-03-22 12:09:00,80.1,28.3,27.32,North,0,7.6,9.6,15,0.00,,,0.00,VWS V14.00,2013-03-22 18:09:00,
2013-03-22 12:12:00,79.7,28.0,27.32,North,353,8.1,11.0,15,0.00,,,0.00,VWS V14.00,2013-03-22 18:12:00,
2013-03-22 12:13:00,80.6,28.7,27.32,NNW,342,8.3,11.0,15,0.00,,,0.00,VWS V14.00,2013-03-22 18:13:00,
2013-03-22 12:14:00,79.7,28.0,27.32,NNW,337,5.4,11.0,15,0.00,,,0.00,VWS V14.00,2013-03-22 18:14:00,
2013-03-22 12:16:00,79.9,28.1,27.32,NW,312,12.8,12.8,15,0.00,,,0.00,VWS V14.00,2013-03-22 18:16:00,
2013-03-22 12:18:00,78.8,27.3,27.32,WNW,297,8.1,12.8,15,0.00,,,0.00,VWS V14.00,2013-03-22 18:18:00,
2013-03-22 12:19:00,77.7,28.0,27.32,NW,305,8.3,12.8,16,0.00,,,0.00,VWS V14.00,2013-03-22 18:19:00,
2013-03-22 12:20:00,77.2,27.6,27.32,North,353,7.6,12.8,16,0.00,,,0.00,VWS V14.00,2013-03-22 18:20:00,
2013-03-22 12:23:00,77.7,28.0,27.32,NNW,331,6.3,12.8,16,0.00,,,0.00,VWS V14.00,2013-03-22 18:23:00,
2013-03-22 12:24:00,77.5,27.9,27.32,North,1,4.0,12.8,16,0.00,,,0.00,VWS V14.00,2013-03-22 18:24:00,
2013-03-22 12:25:00,77.4,27.7,27.32,North,357,8.1,12.8,16,0.00,,,0.00,VWS V14.00,2013-03-22 18:25:00,
2013-03-22 12:26:00,76.6,27.1,27.32,North,11,8.7,12.8,16,0.00,,,0.00,VWS V14.00,2013-03-22 18:26:00,
2013-03-22 12:28:00,75.9,26.5,27.32,NW,325,10.5,12.8,16,0.00,,,0.00,VWS V14.00,2013-03-22 18:28:00,
2013-03-22 12:29:00,75.7,26.4,27.32,NW,321,6.3,12.8,16,0.00,,,0.00,VWS V14.00,2013-03-22 18:29:00,
2013-03-22 12:30:00,75.7,26.4,27.32,North,353,10.5,10.5,16,0.00,,,0.00,VWS V14.00,2013-03-22 18:30:00,
2013-03-22 12:31:00,75.9,26.5,27.32,NW,326,5.4,10.5,16,0.00,,,0.00,VWS V14.00,2013-03-22 18:31:00,
2013-03-22 12:34:00,76.1,26.7,27.35,West,279,5.4,10.5,16,0.00,,,0.00,VWS V14.00,2013-03-22 18:34:00,
2013-03-22 12:36:00,75.7,26.4,27.35,NNE,22,11.4,13.2,16,0.00,,,0.00,VWS V14.00,2013-03-22 18:36:00,
2013-03-22 12:38:00,75.2,26.0,27.35,NNE,22,8.3,13.2,16,0.00,,,0.00,VWS V14.00,2013-03-22 18:38:00,
2013-03-22 12:39:00,77.5,27.9,27.35,WNW,296,7.6,13.2,16,0.00,,,0.00,VWS V14.00,2013-03-22 18:39:00,
2013-03-22 12:42:00,77.4,27.7,27.35,NW,322,10.1,13.2,16,0.00,,,0.00,VWS V14.00,2013-03-22 18:42:00,
2013-03-22 12:43:00,77.2,27.6,27.35,North,11,10.1,13.2,16,0.00,,,0.00,VWS V14.00,2013-03-22 18:43:00,
2013-03-22 12:45:00,78.1,28.3,27.35,NNW,342,6.3,13.2,16,0.00,,,0.00,VWS V14.00,2013-03-22 18:45:00,
2013-03-22 12:47:00,79.7,28.0,27.35,NW,308,6.3,10.1,15,0.00,,,0.00,VWS V14.00,2013-03-22 18:47:00,
2013-03-22 12:48:00,78.3,28.4,27.35,NNW,336,10.5,10.5,16,0.00,,,0.00,VWS V14.00,2013-03-22 18:48:00,
2013-03-22 12:50:00,79.2,27.6,27.35,NNE,18,8.1,10.5,15,0.00,,,0.00,VWS V14.00,2013-03-22 18:50:00,
2013-03-22 12:53:00,79.5,27.9,27.35,NNE,19,8.7,10.5,15,0.00,,,0.00,VWS V14.00,2013-03-22 18:53:00,
2013-03-22 12:58:00,80.4,28.6,27.35,North,357,3.6,11.0,15,0.00,,,0.00,VWS V14.00,2013-03-22 18:58:00,
2013-03-22 12:59:00,80.4,28.6,27.35,NNW,331,5.4,11.0,15,0.00,,,0.00,VWS V14.00,2013-03-22 18:59:00,
2013-03-22 13:00:00,80.1,28.3,27.35,NW,321,8.3,8.3,15,0.00,,,0.00,VWS V14.00,2013-03-22 19:00:00,
2013-03-22 13:03:00,79.0,27.4,27.35,NNW,330,5.8,10.5,15,0.00,,,0.00,VWS V14.00,2013-03-22 19:03:00,
2013-03-22 13:04:00,78.6,28.7,27.35,NNE,29,4.0,10.5,16,0.00,,,0.00,VWS V14.00,2013-03-22 19:04:00,
2013-03-22 13:05:00,78.6,28.7,27.35,NNW,338,3.6,10.5,16,0.00,,,0.00,VWS V14.00,2013-03-22 19:05:00,
2013-03-22 13:06:00,78.3,28.4,27.35,NNW,336,5.4,10.5,16,0.00,,,0.00,VWS V14.00,2013-03-22 19:06:00,
2013-03-22 13:08:00,78.4,28.6,27.35,NW,307,6.3,10.5,16,0.00,,,0.00,VWS V14.00,2013-03-22 19:08:00,
2013-03-22 13:10:00,79.0,27.4,27.35,NE,42,6.3,10.5,15,0.00,,,0.00,VWS V14.00,2013-03-22 19:10:00,
2013-03-22 13:11:00,77.4,27.7,27.35,NNE,29,6.3,10.5,16,0.00,,,0.00,VWS V14.00,2013-03-22 19:11:00,
2013-03-22 13:15:00,77.7,28.0,27.35,North,0,6.3,10.5,16,0.00,,,0.00,VWS V14.00,2013-03-22 19:15:00,
2013-03-22 13:16:00,77.9,28.1,27.35,NNE,12,6.3,6.3,16,0.00,,,0.00,VWS V14.00,2013-03-22 19:16:00,
2013-03-22 13:21:00,79.5,27.9,27.35,NNW,344,5.4,7.6,15,0.00,,,0.00,VWS V14.00,2013-03-22 19:21:00,
2013-03-22 13:22:00,79.3,27.7,27.35,NNE,16,5.4,7.6,15,0.00,,,0.00,VWS V14.00,2013-03-22 19:22:00,
2013-03-22 13:23:00,79.5,27.9,27.35,NNW,348,7.6,7.6,15,0.00,,,0.00,VWS V14.00,2013-03-22 19:23:00,
2013-03-22 13:27:00,78.4,28.6,27.35,North,7,5.8,8.1,16,0.00,,,0.00,VWS V14.00,2013-03-22 19:27:00,
2013-03-22 13:28:00,78.6,28.7,27.35,North,0,7.2,8.3,16,0.00,,,0.00,VWS V14.00,2013-03-22 19:28:00,
2013-03-22 13:32:00,79.9,28.1,27.35,NW,314,5.8,8.7,15,0.00,,,0.00,VWS V14.00,2013-03-22 19:32:00,
2013-03-22 13:33:00,79.9,28.1,27.35,North,353,6.3,8.7,15,0.00,,,0.00,VWS V14.00,2013-03-22 19:33:00,
2013-03-22 13:34:00,79.9,28.1,27.35,North,357,3.6,8.7,15,0.00,,,0.00,VWS V14.00,2013-03-22 19:34:00,
2013-03-22 13:38:00,80.6,28.7,27.35,NNW,331,8.7,8.7,15,0.00,,,0.00,VWS V14.00,2013-03-22 19:38:00,
2013-03-22 13:39:00,81.7,29.6,27.35,NNW,332,5.4,8.7,15,0.00,,,0.00,VWS V14.00,2013-03-22 19:39:00,
2013-03-22 13:43:00,81.0,29.0,27.35,North,353,8.7,10.1,15,0.00,,,0.00,VWS V14.00,2013-03-22 19:43:00,
2013-03-22 13:44:00,81.0,29.0,27.35,NNW,335,8.1,10.1,15,0.00,,,0.00,VWS V14.00,2013-03-22 19:44:00,
2013-03-22 13:45:00,81.5,29.4,27.35,NNE,32,2.7,3.6,15,0.00,,,0.00,VWS V14.00,2013-03-22 19:45:00,
2013-03-22 13:48:00,79.0,27.4,27.35,NNE,31,7.6,7.6,15,0.00,,,0.00,VWS V14.00,2013-03-22 19:48:00,
2013-03-22 13:50:00,79.2,27.6,27.35,NNE,33,5.4,7.6,15,0.00,,,0.00,VWS V14.00,2013-03-22 19:50:00,
2013-03-22 13:51:00,79.2,27.6,27.35,NW,324,5.8,7.6,15,0.00,,,0.00,VWS V14.00,2013-03-22 19:51:00,
2013-03-22 13:54:00,82.0,29.9,27.35,NW,304,6.3,10.5,15,0.00,,,0.00,VWS V14.00,2013-03-22 19:54:00,
2013-03-22 13:55:00,82.0,29.9,27.35,NW,317,7.6,10.5,15,0.00,,,0.00,VWS V14.00,2013-03-22 19:55:00,
2013-03-22 13:56:00,82.6,28.6,27.35,NW,306,4.0,10.5,14,0.00,,,0.00,VWS V14.00,2013-03-22 19:56:00,
2013-03-22 13:57:00,82.0,29.9,27.35,North,1,2.7,10.5,15,0.00,,,0.00,VWS V14.00,2013-03-22 19:57:00,
2013-03-22 13:59:00,82.4,28.5,27.35,NW,326,4.9,10.5,14,0.00,,,0.00,VWS V14.00,2013-03-22 19:59:00,
2013-03-22 14:00:00,82.0,29.9,27.35,NNW,327,6.3,7.6,15,0.00,,,0.00,VWS V14.00,2013-03-22 20:00:00,
2013-03-22 14:02:00,82.4,28.5,27.35,NNW,344,5.4,7.6,14,0.00,,,0.00,VWS V14.00,2013-03-22 20:02:00,
2013-03-22 14:04:00,82.8,28.8,27.35,NW,311,7.6,8.7,14,0.00,,,0.00,VWS V14.00,2013-03-22 20:04:00,
2013-03-22 14:07:00,82.4,28.5,27.35,North,4,6.3,8.7,14,0.00,,,0.00,VWS V14.00,2013-03-22 20:07:00,
2013-03-22 14:08:00,82.6,28.6,27.35,NNW,333,3.1,8.7,14,0.00,,,0.00,VWS V14.00,2013-03-22 20:08:00,
2013-03-22 14:10:00,84.0,29.8,27.35,NW,315,8.1,8.7,14,0.00,,,0.00,VWS V14.00,2013-03-22 20:10:00,
2013-03-22 14:12:00,83.5,29.3,27.35,NW,317,5.8,8.7,14,0.00,,,0.00,VWS V14.00,2013-03-22 20:12:00,
2013-03-22 14:13:00,83.7,29.5,27.35,WNW,299,2.2,8.7,14,0.00,,,0.00,VWS V14.00,2013-03-22 20:13:00,
2013-03-22 14:16:00,82.0,29.9,27.35,NNE,20,3.6,4.0,15,0.00,,,0.00,VWS V14.00,2013-03-22 20:16:00,
2013-03-22 14:18:00,82.0,29.9,27.35,WNW,295,5.8,7.2,15,0.00,,,0.00,VWS V14.00,2013-03-22 20:18:00,
2013-03-22 14:21:00,80.2,28.4,27.35,North,357,5.4,8.1,15,0.00,,,0.00,VWS V14.00,2013-03-22 20:21:00,
2013-03-22 14:23:00,82.8,28.8,27.35,NNW,330,4.0,8.1,14,0.00,,,0.00,VWS V14.00,2013-03-22 20:23:00,
2013-03-22 14:24:00,85.5,30.9,27.35,WNW,296,8.7,8.7,14,0.00,,,0.00,VWS V14.00,2013-03-22 20:24:00,
2013-03-22 14:26:00,86.4,31.6,27.35,West,275,2.7,8.7,14,0.00,,,0.00,VWS V14.00,2013-03-22 20:26:00,
2013-03-22 14:27:00,86.5,31.7,27.35,WNW,291,3.6,8.7,14,0.00,,,0.00,VWS V14.00,2013-03-22 20:27:00,
2013-03-22 14:28:00,87.3,32.3,27.35,WNW,291,3.1,8.7,14,0.00,,,0.00,VWS V14.00,2013-03-22 20:28:00,
2013-03-22 14:31:00,85.8,31.2,27.35,NNW,329,7.2,7.2,14,0.00,,,0.00,VWS V14.00,2013-03-22 20:31:00,
2013-03-22 14:32:00,85.8,31.2,27.35,North,353,4.0,7.2,14,0.00,,,0.00,VWS V14.00,2013-03-22 20:32:00,
2013-03-22 14:34:00,86.0,31.3,27.35,North,3,8.7,8.7,14,0.00,,,0.00,VWS V14.00,2013-03-22 20:34:00,
2013-03-22 14:37:00,84.4,30.0,27.35,NNW,332,5.4,8.7,14,0.00,,,0.00,VWS V14.00,2013-03-22 20:37:00,
2013-03-22 14:39:00,85.6,31.0,27.35,North,1,0.0,8.7,14,0.00,,,0.00,VWS V14.00,2013-03-22 20:39:00,
2013-03-22 14:40:00,85.1,30.6,27.35,North,1,5.8,8.7,14,0.00,,,0.00,VWS V14.00,2013-03-22 20:40:00,
2013-03-22 14:42:00,85.8,31.2,27.35,NNW,331,5.8,8.7,14,0.00,,,0.00,VWS V14.00,2013-03-22 20:42:00,
2013-03-22 14:44:00,86.4,31.6,27.35,North,357,4.0,8.7,14,0.00,,,0.00,VWS V14.00,2013-03-22 20:44:00,
2013-03-22 14:45:00,85.1,30.6,27.35,North,1,8.3,8.7,14,0.00,,,0.00,VWS V14.00,2013-03-22 20:45:00,
2013-03-22 14:49:00,86.2,31.5,27.35,NNW,332,3.6,8.3,14,0.00,,,0.00,VWS V14.00,2013-03-22 20:49:00,
2013-03-22 14:50:00,86.4,31.6,27.35,NW,318,8.3,8.3,14,0.00,,,0.00,VWS V14.00,2013-03-22 20:50:00,
2013-03-22 14:54:00,84.9,30.5,27.35,NW,326,8.3,8.3,14,0.00,,,0.00,VWS V14.00,2013-03-22 20:54:00,
2013-03-22 14:55:00,84.9,30.5,27.35,NNW,344,6.3,8.3,14,0.00,,,0.00,VWS V14.00,2013-03-22 20:55:00,
2013-03-22 14:57:00,84.9,30.5,27.35,NW,323,4.9,8.3,14,0.00,,,0.00,VWS V14.00,2013-03-22 20:57:00,
2013-03-22 15:00:00,84.2,29.9,27.35,NNW,335,3.6,8.7,14,0.00,,,0.00,VWS V14.00,2013-03-22 21:00:00,
2013-03-22 15:01:00,83.5,29.3,27.35,North,357,8.3,8.7,14,0.00,,,0.00,VWS V14.00,2013-03-22 21:01:00,
2013-03-22 15:02:00,84.0,29.8,27.35,North,10,4.0,8.7,14,0.00,,,0.00,VWS V14.00,2013-03-22 21:02:00,
2013-03-22 15:05:00,86.2,31.5,27.35,NW,324,6.3,10.1,14,0.00,,,0.00,VWS V14.00,2013-03-22 21:05:00,
2013-03-22 15:07:00,85.8,31.2,27.35,NNW,329,2.7,10.1,14,0.00,,,0.00,VWS V14.00,2013-03-22 21:07:00,
2013-03-22 15:08:00,85.6,31.0,27.35,North,357,4.9,10.1,14,0.00,,,0.00,VWS V14.00,2013-03-22 21:08:00,
2013-03-22 15:10:00,86.5,31.7,27.35,NW,316,8.7,10.1,14,0.00,,,0.00,VWS V14.00,2013-03-22 21:10:00,
2013-03-22 15:12:00,85.6,31.0,27.35,North,8,7.6,10.5,14,0.00,,,0.00,VWS V14.00,2013-03-22 21:12:00,
2013-03-22 15:13:00,86.9,32.0,27.35,NNW,346,8.1,10.5,14,0.00,,,0.00,VWS V14.00,2013-03-22 21:13:00,
2013-03-22 15:15:00,83.7,29.5,27.35,NNE,20,7.2,7.6,14,0.00,,,0.00,VWS V14.00,2013-03-22 21:15:00,
2013-03-22 15:17:00,82.2,30.0,27.35,NNE,21,6.3,8.7,15,0.00,,,0.00,VWS V14.00,2013-03-22 21:17:00,
2013-03-22 15:18:00,83.3,29.2,27.35,NNE,14,7.6,8.7,14,0.00,,,0.00,VWS V14.00,2013-03-22 21:18:00,
2013-03-22 15:19:00,82.9,28.9,27.35,North,357,5.4,8.7,14,0.00,,,0.00,VWS V14.00,2013-03-22 21:19:00,
2013-03-22 15:22:00,83.5,29.3,27.35,NW,310,5.8,8.7,14,0.00,,,0.00,VWS V14.00,2013-03-22 21:22:00,
2013-03-22 15:24:00,84.6,30.2,27.35,NE,38,7.6,8.7,14,0.00,,,0.00,VWS V14.00,2013-03-22 21:24:00,
2013-03-22 15:25:00,82.0,29.9,27.35,NNE,30,5.4,8.7,15,0.00,,,0.00,VWS V14.00,2013-03-22 21:25:00,
2013-03-22 15:27:00,83.5,29.3,27.35,NW,325,10.1,11.0,14,0.00,,,0.00,VWS V14.00,2013-03-22 21:27:00,
2013-03-22 15:29:00,84.4,30.0,27.35,WNW,296,6.3,11.0,14,0.00,,,0.00,VWS V14.00,2013-03-22 21:29:00,
2013-03-22 15:31:00,84.9,30.5,27.35,North,0,6.7,6.7,14,0.00,,,0.00,VWS V14.00,2013-03-22 21:31:00,
2013-03-22 15:33:00,85.5,30.9,27.35,NNW,343,4.0,6.7,14,0.00,,,0.00,VWS V14.00,2013-03-22 21:33:00,
2013-03-22 15:35:00,86.7,31.9,27.35,NW,321,4.0,7.6,14,0.00,,,0.00,VWS V14.00,2013-03-22 21:35:00,
2013-03-22 15:37:00,84.9,30.5,27.35,NW,326,6.3,10.1,14,0.00,,,0.00,VWS V14.00,2013-03-22 21:37:00,
2013-03-22 15:39:00,85.3,30.7,27.35,NNW,339,7.6,10.1,14,0.00,,,0.00,VWS V14.00,2013-03-22 21:39:00,
2013-03-22 15:42:00,84.9,30.5,27.35,NW,321,8.3,10.1,14,0.00,,,0.00,VWS V14.00,2013-03-22 21:42:00,
2013-03-22 15:43:00,84.7,30.3,27.35,NNW,331,7.6,10.1,14,0.00,,,0.00,VWS V14.00,2013-03-22 21:43:00,
2013-03-22 15:44:00,85.8,31.2,27.35,NNW,332,9.2,10.1,14,0.00,,,0.00,VWS V14.00,2013-03-22 21:44:00,
2013-03-22 15:45:00,84.6,30.2,27.35,NNW,337,6.3,10.1,14,0.00,,,0.00,VWS V14.00,2013-03-22 21:45:00,
2013-03-22 15:47:00,86.4,31.6,27.35,NNE,16,5.8,6.7,14,0.00,,,0.00,VWS V14.00,2013-03-22 21:47:00,
2013-03-22 15:49:00,81.9,29.7,27.35,NE,44,6.3,9.6,15,0.00,,,0.00,VWS V14.00,2013-03-22 21:49:00,
2013-03-22 15:50:00,82.2,30.0,27.35,North,7,6.3,9.6,15,0.00,,,0.00,VWS V14.00,2013-03-22 21:50:00,
2013-03-22 15:52:00,82.2,30.0,27.35,North,6,3.6,9.6,15,0.00,,,0.00,VWS V14.00,2013-03-22 21:52:00,
2013-03-22 15:54:00,81.9,29.7,27.35,NE,34,8.7,9.6,15,0.00,,,0.00,VWS V14.00,2013-03-22 21:54:00,
2013-03-22 15:56:00,82.0,29.9,27.35,NNE,27,3.1,9.6,15,0.00,,,0.00,VWS V14.00,2013-03-22 21:56:00,
2013-03-22 15:58:00,83.3,29.2,27.35,North,353,4.9,9.6,14,0.00,,,0.00,VWS V14.00,2013-03-22 21:58:00,
2013-03-22 15:59:00,84.7,30.3,27.35,North,357,3.1,9.6,14,0.00,,,0.00,VWS V14.00,2013-03-22 21:59:00,
2013-03-22 16:00:00,84.7,30.3,27.35,NNE,31,3.6,9.6,14,0.00,,,0.00,VWS V14.00,2013-03-22 22:00:00,
2013-03-22 16:01:00,82.4,28.5,27.35,North,2,5.4,10.1,14,0.00,,,0.00,VWS V14.00,2013-03-22 22:01:00,
2013-03-22 16:03:00,83.1,29.0,27.35,North,357,8.1,10.1,14,0.00,,,0.00,VWS V14.00,2013-03-22 22:03:00,
2013-03-22 16:05:00,82.8,28.8,27.35,NW,326,7.6,10.1,14,0.00,,,0.00,VWS V14.00,2013-03-22 22:05:00,
2013-03-22 16:06:00,83.1,29.0,27.35,NW,321,4.9,10.1,14,0.00,,,0.00,VWS V14.00,2013-03-22 22:06:00,
2013-03-22 16:07:00,82.8,28.8,27.35,NW,326,8.3,10.1,14,0.00,,,0.00,VWS V14.00,2013-03-22 22:07:00,
2013-03-22 16:10:00,82.6,28.6,27.35,NNW,341,5.8,10.1,14,0.00,,,0.00,VWS V14.00,2013-03-22 22:10:00,
2013-03-22 16:11:00,83.3,29.2,27.35,North,353,4.0,10.1,14,0.00,,,0.00,VWS V14.00,2013-03-22 22:11:00,
2013-03-22 16:12:00,82.9,28.9,27.35,North,3,5.8,10.1,14,0.00,,,0.00,VWS V14.00,2013-03-22 22:12:00,
2013-03-22 16:13:00,82.8,28.8,27.35,NNW,336,4.0,10.1,14,0.00,,,0.00,VWS V14.00,2013-03-22 22:13:00,
2013-03-22 16:15:00,84.7,30.3,27.35,NW,314,5.8,10.1,14,0.00,,,0.00,VWS V14.00,2013-03-22 22:15:00,
2013-03-22 16:17:00,85.8,31.2,27.35,North,9,2.2,5.8,14,0.00,,,0.00,VWS V14.00,2013-03-22 22:17:00,
2013-03-22 16:18:00,83.5,29.3,27.35,NE,45,4.5,5.8,14,0.00,,,0.00,VWS V14.00,2013-03-22 22:18:00,
2013-03-22 16:20:00,84.9,30.5,27.35,NW,309,3.1,7.6,14,0.00,,,0.00,VWS V14.00,2013-03-22 22:20:00,
2013-03-22 16:22:00,83.8,29.6,27.35,NNW,346,5.4,7.6,14,0.00,,,0.00,VWS V14.00,2013-03-22 22:22:00,
2013-03-22 16:23:00,83.7,29.5,27.35,North,6,5.8,7.6,14,0.00,,,0.00,VWS V14.00,2013-03-22 22:23:00,
2013-03-22 16:24:00,83.5,29.3,27.35,NE,35,3.6,7.6,14,0.00,,,0.00,VWS V14.00,2013-03-22 22:24:00,
2013-03-22 16:27:00,82.8,28.8,27.35,North,349,4.0,7.6,14,0.00,,,0.00,VWS V14.00,2013-03-22 22:27:00,
2013-03-22 16:28:00,82.6,28.6,27.35,NE,35,3.6,7.6,14,0.00,,,0.00,VWS V14.00,2013-03-22 22:28:00,
2013-03-22 16:29:00,83.5,29.3,27.35,NE,35,3.1,7.6,14,0.00,,,0.00,VWS V14.00,2013-03-22 22:29:00,
2013-03-22 16:30:00,82.0,29.9,27.35,NNE,18,4.0,5.8,15,0.00,,,0.00,VWS V14.00,2013-03-22 22:30:00,
2013-03-22 16:33:00,82.0,29.9,27.35,North,7,6.3,8.7,15,0.00,,,0.00,VWS V14.00,2013-03-22 22:33:00,
2013-03-22 16:35:00,81.7,29.6,27.35,North,353,6.3,8.7,15,0.00,,,0.00,VWS V14.00,2013-03-22 22:35:00,
2013-03-22 16:37:00,81.5,29.4,27.35,NE,45,4.9,8.7,15,0.00,,,0.00,VWS V14.00,2013-03-22 22:37:00,
2013-03-22 16:38:00,81.3,29.3,27.35,North,357,3.6,8.7,15,0.00,,,0.00,VWS V14.00,2013-03-22 22:38:00,
2013-03-22 16:41:00,84.0,29.8,27.35,NW,310,8.1,8.7,14,0.00,,,0.00,VWS V14.00,2013-03-22 22:41:00,
2013-03-22 16:44:00,83.1,29.0,27.35,North,5,6.3,8.7,14,0.00,,,0.00,VWS V14.00,2013-03-22 22:44:00,
2013-03-22 16:46:00,83.8,29.6,27.35,NW,326,3.1,6.3,14,0.00,,,0.00,VWS V14.00,2013-03-22 22:46:00,
2013-03-22 16:49:00,83.7,29.5,27.38,NW,326,7.6,8.1,14,0.00,,,0.00,VWS V14.00,2013-03-22 22:49:00,
2013-03-22 16:50:00,84.0,29.8,27.38,NNW,327,5.8,8.1,14,0.00,,,0.00,VWS V14.00,2013-03-22 22:50:00,
2013-03-22 16:53:00,82.2,30.0,27.38,North,357,8.1,8.7,15,0.00,,,0.00,VWS V14.00,2013-03-22 22:53:00,
2013-03-22 16:55:00,82.8,28.8,27.38,NNW,330,3.1,8.7,14,0.00,,,0.00,VWS V14.00,2013-03-22 22:55:00,
2013-03-22 16:58:00,82.2,30.0,27.38,North,353,4.9,8.7,15,0.00,,,0.00,VWS V14.00,2013-03-22 22:58:00,
2013-03-22 17:00:00,81.5,29.4,27.38,North,357,4.0,8.7,15,0.00,,,0.00,VWS V14.00,2013-03-22 23:00:00,
2013-03-22 17:02:00,80.8,28.9,27.38,NNE,19,3.6,6.3,15,0.00,,,0.00,VWS V14.00,2013-03-22 23:02:00,
2013-03-22 17:03:00,80.1,28.3,27.38,North,349,5.4,6.3,15,0.00,,,0.00,VWS V14.00,2013-03-22 23:03:00,
2013-03-22 17:04:00,79.5,27.9,27.38,NNE,15,7.6,7.6,15,0.00,,,0.00,VWS V14.00,2013-03-22 23:04:00,
2013-03-22 17:06:00,78.6,28.7,27.38,North,6,6.3,7.6,16,0.00,,,0.00,VWS V14.00,2013-03-22 23:06:00,
2013-03-22 17:07:00,78.6,28.7,27.38,North,353,4.0,7.6,16,0.00,,,0.00,VWS V14.00,2013-03-22 23:07:00,
2013-03-22 17:09:00,78.6,28.7,27.38,North,357,4.0,7.6,16,0.00,,,0.00,VWS V14.00,2013-03-22 23:09:00,
2013-03-22 17:10:00,78.6,28.7,27.38,NE,47,6.3,7.6,16,0.00,,,0.00,VWS V14.00,2013-03-22 23:10:00,
2013-03-22 17:11:00,78.4,28.6,27.38,North,357,6.3,8.1,16,0.00,,,0.00,VWS V14.00,2013-03-22 23:11:00,
2013-03-22 17:12:00,78.3,28.4,27.38,WNW,302,4.0,8.1,16,0.00,,,0.00,VWS V14.00,2013-03-22 23:12:00,
2013-03-22 17:14:00,77.9,28.1,27.38,NNW,342,5.4,10.1,16,0.00,,,0.00,VWS V14.00,2013-03-22 23:14:00,
2013-03-22 17:15:00,77.7,28.0,27.38,North,353,5.8,10.1,16,0.00,,,0.00,VWS V14.00,2013-03-22 23:15:00,
2013-03-22 17:17:00,77.4,27.7,27.38,NW,305,8.1,9.6,16,0.00,,,0.00,VWS V14.00,2013-03-22 23:17:00,
2013-03-22 17:18:00,77.2,27.6,27.38,NNW,334,7.2,9.6,16,0.00,,,0.00,VWS V14.00,2013-03-22 23:18:00,
2013-03-22 17:20:00,76.8,27.3,27.38,North,8,5.4,9.6,16,0.00,,,0.00,VWS V14.00,2013-03-22 23:20:00,
2013-03-22 17:22:00,76.8,27.3,27.38,NNW,332,4.0,9.6,16,0.00,,,0.00,VWS V14.00,2013-03-22 23:22:00,
2013-03-22 17:23:00,76.8,27.3,27.38,NW,317,7.6,9.6,16,0.00,,,0.00,VWS V14.00,2013-03-22 23:23:00,
2013-03-22 17:24:00,76.8,27.3,27.38,NW,314,8.3,9.6,16,0.00,,,0.00,VWS V14.00,2013-03-22 23:24:00,
2013-03-22 17:25:00,76.6,27.1,27.38,North,349,8.1,9.6,16,0.00,,,0.00,VWS V14.00,2013-03-22 23:25:00,
2013-03-22 17:28:00,76.5,27.0,27.38,NNW,341,8.3,9.6,16,0.00,,,0.00,VWS V14.00,2013-03-22 23:28:00,
2013-03-22 17:29:00,76.5,27.0,27.38,NNW,337,8.1,9.6,16,0.00,,,0.00,VWS V14.00,2013-03-22 23:29:00,
2013-03-22 17:30:00,76.5,27.0,27.38,North,3,4.9,9.6,16,0.00,,,0.00,VWS V14.00,2013-03-22 23:30:00,
2013-03-22 17:31:00,76.5,27.0,27.38,NW,325,5.4,8.1,16,0.00,,,0.00,VWS V14.00,2013-03-22 23:31:00,
2013-03-22 17:34:00,76.3,26.8,27.38,North,357,4.9,8.7,16,0.00,,,0.00,VWS V14.00,2013-03-22 23:34:00,
2013-03-22 17:35:00,76.3,26.8,27.38,NW,311,5.4,8.7,16,0.00,,,0.00,VWS V14.00,2013-03-22 23:35:00,
2013-03-22 17:36:00,75.9,26.5,27.38,North,357,3.1,8.7,16,0.00,,,0.00,VWS V14.00,2013-03-22 23:36:00,
2013-03-22 17:37:00,75.9,26.5,27.38,NNW,346,5.4,8.7,16,0.00,,,0.00,VWS V14.00,2013-03-22 23:37:00,
2013-03-22 17:40:00,75.7,26.4,27.38,North,357,5.8,8.7,16,0.00,,,0.00,VWS V14.00,2013-03-22 23:40:00,
2013-03-22 17:41:00,75.7,26.4,27.38,NNW,339,6.3,8.7,16,0.00,,,0.00,VWS V14.00,2013-03-22 23:41:00,
2013-03-22 17:42:00,75.7,26.4,27.38,NNW,340,3.6,8.7,16,0.00,,,0.00,VWS V14.00,2013-03-22 23:42:00,
2013-03-22 17:43:00,75.7,26.4,27.38,North,357,7.6,8.7,16,0.00,,,0.00,VWS V14.00,2013-03-22 23:43:00,
2013-03-22 17:45:00,75.9,26.5,27.38,NNE,21,8.3,9.2,16,0.00,,,0.00,VWS V14.00,2013-03-22 23:45:00,
2013-03-22 17:47:00,75.9,26.5,27.38,ENE,58,2.7,9.2,16,0.00,,,0.00,VWS V14.00,2013-03-22 23:47:00,
2013-03-22 17:48:00,75.7,26.4,27.38,NNE,30,7.6,9.2,16,0.00,,,0.00,VWS V14.00,2013-03-22 23:48:00,
2013-03-22 17:51:00,75.6,26.3,27.38,ENE,75,5.8,9.2,16,0.00,,,0.00,VWS V14.00,2013-03-22 23:51:00,
2013-03-22 17:52:00,75.6,26.3,27.38,ENE,75,3.6,9.2,16,0.00,,,0.00,VWS V14.00,2013-03-22 23:52:00,
2013-03-22 17:54:00,75.4,26.1,27.38,NNE,25,6.3,9.2,16,0.00,,,0.00,VWS V14.00,2013-03-22 23:54:00,
2013-03-22 17:57:00,75.2,26.0,27.38,NE,41,3.1,9.2,16,0.00,,,0.00,VWS V14.00,2013-03-22 23:57:00,
2013-03-22 17:59:00,75.0,25.8,27.38,NNE,30,5.4,9.2,16,0.00,,,0.00,VWS V14.00,2013-03-22 23:59:00,
2013-03-22 18:01:00,74.8,25.7,27.38,NE,37,5.4,6.3,16,0.00,,,0.00,VWS V14.00,2013-03-23 00:01:00,
2013-03-22 18:02:00,74.8,25.7,27.38,NE,40,4.0,6.3,16,0.00,,,0.00,VWS V14.00,2013-03-23 00:02:00,
2013-03-22 18:05:00,74.3,25.2,27.38,NE,41,4.0,7.6,16,0.00,,,0.00,VWS V14.00,2013-03-23 00:05:00,
2013-03-22 18:07:00,73.9,25.0,27.38,NE,34,6.3,7.6,16,0.00,,,0.00,VWS V14.00,2013-03-23 00:07:00,
2013-03-22 18:08:00,73.9,25.0,27.38,NE,44,4.5,7.6,16,0.00,,,0.00,VWS V14.00,2013-03-23 00:08:00,
2013-03-22 18:11:00,73.6,24.7,27.38,NE,34,3.1,8.7,16,0.00,,,0.00,VWS V14.00,2013-03-23 00:11:00,
2013-03-22 18:13:00,73.2,25.8,27.38,NNE,17,5.8,9.6,17,0.00,,,0.00,VWS V14.00,2013-03-23 00:13:00,
2013-03-22 18:14:00,73.2,25.8,27.38,North,2,8.1,9.6,17,0.00,,,0.00,VWS V14.00,2013-03-23 00:14:00,
2013-03-22 18:17:00,72.9,25.5,27.38,NNE,22,6.3,7.6,17,0.00,,,0.00,VWS V14.00,2013-03-23 00:17:00,
2013-03-22 18:18:00,72.7,25.4,27.38,NNE,29,5.4,10.5,17,0.00,,,0.00,VWS V14.00,2013-03-23 00:18:00,
2013-03-22 18:19:00,72.5,25.2,27.38,NE,39,3.1,10.5,17,0.00,,,0.00,VWS V14.00,2013-03-23 00:19:00,
2013-03-22 18:21:00,72.5,25.2,27.38,NE,46,5.4,10.5,17,0.00,,,0.00,VWS V14.00,2013-03-23 00:21:00,
2013-03-22 18:22:00,72.5,25.2,27.38,NE,36,3.6,10.5,17,0.00,,,0.00,VWS V14.00,2013-03-23 00:22:00,
2013-03-22 18:24:00,72.3,25.1,27.38,NE,41,4.9,10.5,17,0.00,,,0.00,VWS V14.00,2013-03-23 00:24:00,
2013-03-22 18:27:00,72.1,25.0,27.38,NNE,24,3.1,10.5,17,0.00,,,0.00,VWS V14.00,2013-03-23 00:27:00,
2013-03-22 18:29:00,71.8,24.7,27.38,East,79,6.3,10.5,17,0.00,,,0.00,VWS V14.00,2013-03-23 00:29:00,
2013-03-22 18:30:00,72.0,24.8,27.38,NNE,22,5.4,10.5,17,0.00,,,0.00,VWS V14.00,2013-03-23 00:30:00,
2013-03-22 18:32:00,71.8,24.7,27.38,NNE,16,7.6,7.6,17,0.00,,,0.00,VWS V14.00,2013-03-23 00:32:00,
2013-03-22 18:33:00,71.8,24.7,27.38,NE,40,6.3,7.6,17,0.00,,,0.00,VWS V14.00,2013-03-23 00:33:00,
2013-03-22 18:35:00,71.6,24.5,27.38,North,6,2.7,7.6,17,0.00,,,0.00,VWS V14.00,2013-03-23 00:35:00,
2013-03-22 18:38:00,71.1,24.1,27.38,ENE,58,10.1,10.1,17,0.00,,,0.00,VWS V14.00,2013-03-23 00:38:00,
2013-03-22 18:40:00,70.9,23.9,27.38,NNE,15,8.1,10.1,17,0.00,,,0.00,VWS V14.00,2013-03-23 00:40:00,
2013-03-22 18:41:00,70.9,23.9,27.38,NNE,15,4.5,10.1,17,0.00,,,0.00,VWS V14.00,2013-03-23 00:41:00,
2013-03-22 18:43:00,70.7,23.8,27.38,NNE,19,6.3,10.1,17,0.00,,,0.00,VWS V14.00,2013-03-23 00:43:00,
2013-03-22 18:47:00,70.3,23.5,27.38,NE,48,3.6,6.3,17,0.00,,,0.00,VWS V14.00,2013-03-23 00:47:00,
2013-03-22 18:48:00,70.2,23.4,27.38,NE,42,5.4,6.3,17,0.00,,,0.00,VWS V14.00,2013-03-23 00:48:00,
2013-03-22 18:49:00,70.0,23.2,27.38,NE,39,3.6,6.3,17,0.00,,,0.00,VWS V14.00,2013-03-23 00:49:00,
2013-03-22 18:52:00,69.8,23.1,27.38,NNE,26,4.0,8.1,17,0.00,,,0.00,VWS V14.00,2013-03-23 00:52:00,
2013-03-22 18:53:00,69.8,23.1,27.38,NNE,24,4.0,8.1,17,0.00,,,0.00,VWS V14.00,2013-03-23 00:53:00,
2013-03-22 18:55:00,69.6,24.3,27.38,NNE,32,4.9,8.1,18,0.00,,,0.00,VWS V14.00,2013-03-23 00:55:00,
2013-03-22 18:57:00,69.4,24.1,27.38,NE,34,4.0,8.1,18,0.00,,,0.00,VWS V14.00,2013-03-23 00:57:00,
2013-03-22 18:58:00,69.3,24.0,27.38,NNE,19,4.0,8.1,18,0.00,,,0.00,VWS V14.00,2013-03-23 00:58:00,
2013-03-22 19:00:00,69.4,24.1,27.38,NNE,12,4.0,6.3,18,0.00,,,0.00,VWS V14.00,2013-03-23 01:00:00,
2013-03-22 19:03:00,69.3,24.0,27.38,NNE,30,3.1,8.1,18,0.00,,,0.00,VWS V14.00,2013-03-23 01:03:00,
2013-03-22 19:04:00,69.1,23.8,27.38,NE,41,3.6,8.1,18,0.00,,,0.00,VWS V14.00,2013-03-23 01:04:00,
2013-03-22 19:05:00,69.3,24.0,27.38,NNE,24,4.0,8.3,18,0.00,,,0.00,VWS V14.00,2013-03-23 01:05:00,
2013-03-22 19:08:00,69.3,24.0,27.38,NNE,28,8.1,8.3,18,0.00,,,0.00,VWS V14.00,2013-03-23 01:08:00,
2013-03-22 19:09:00,69.3,24.0,27.38,NNE,30,3.1,8.3,18,0.00,,,0.00,VWS V14.00,2013-03-23 01:09:00,
2013-03-22 19:10:00,69.1,23.8,27.38,NNE,31,3.6,8.3,18,0.00,,,0.00,VWS V14.00,2013-03-23 01:10:00,
2013-03-22 19:11:00,69.1,23.8,27.38,NNE,24,4.0,8.3,18,0.00,,,0.00,VWS V14.00,2013-03-23 01:11:00,
2013-03-22 19:14:00,68.7,23.5,27.38,NNE,18,3.1,8.3,18,0.00,,,0.00,VWS V14.00,2013-03-23 01:14:00,
2013-03-22 19:15:00,68.5,23.4,27.38,NNE,19,3.1,8.3,18,0.00,,,0.00,VWS V14.00,2013-03-23 01:15:00,
2013-03-22 19:16:00,68.4,23.2,27.38,NNE,23,2.7,4.9,18,0.00,,,0.00,VWS V14.00,2013-03-23 01:16:00,
2013-03-22 19:18:00,68.4,23.2,27.38,NE,36,3.6,8.1,18,0.00,,,0.00,VWS V14.00,2013-03-23 01:18:00,
2013-03-22 19:20:00,68.2,23.1,27.38,NNE,19,3.6,8.1,18,0.00,,,0.00,VWS V14.00,2013-03-23 01:20:00,
2013-03-22 19:21:00,68.2,23.1,27.38,NNE,19,4.9,8.1,18,0.00,,,0.00,VWS V14.00,2013-03-23 01:21:00,
2013-03-22 19:23:00,68.0,23.0,27.38,NNE,33,2.7,8.1,18,0.00,,,0.00,VWS V14.00,2013-03-23 01:23:00,
2013-03-22 19:26:00,67.8,22.8,27.38,NE,39,4.0,8.1,18,0.00,,,0.00,VWS V14.00,2013-03-23 01:26:00,
2013-03-22 19:27:00,67.8,22.8,27.38,NE,34,4.0,8.1,18,0.00,,,0.00,VWS V14.00,2013-03-23 01:27:00,
2013-03-22 19:28:00,67.6,22.6,27.38,NNE,17,5.4,8.1,18,0.00,,,0.00,VWS V14.00,2013-03-23 01:28:00,
2013-03-22 19:31:00,67.6,22.6,27.38,NNE,18,4.0,4.0,18,0.00,,,0.00,VWS V14.00,2013-03-23 01:31:00,
2013-03-22 19:34:00,67.5,22.5,27.38,NE,46,3.1,5.4,18,0.00,,,0.00,VWS V14.00,2013-03-23 01:34:00,
2013-03-22 19:35:00,67.3,22.4,27.38,NNE,29,5.4,5.4,18,0.00,,,0.00,VWS V14.00,2013-03-23 01:35:00,
2013-03-22 19:36:00,67.5,22.5,27.38,NNE,30,4.0,5.4,18,0.00,,,0.00,VWS V14.00,2013-03-23 01:36:00,
2013-03-22 19:39:00,67.5,22.5,27.38,ENE,73,8.7,8.7,18,0.00,,,0.00,VWS V14.00,2013-03-23 01:39:00,
2013-03-22 19:40:00,67.5,22.5,27.38,NE,55,4.9,8.7,18,0.00,,,0.00,VWS V14.00,2013-03-23 01:40:00,
2013-03-22 19:42:00,67.5,22.5,27.38,ENE,67,3.6,8.7,18,0.00,,,0.00,VWS V14.00,2013-03-23 01:42:00,
2013-03-22 19:45:00,67.3,22.4,27.38,NNE,23,3.1,8.7,18,0.00,,,0.00,VWS V14.00,2013-03-23 01:45:00,
2013-03-22 19:46:00,67.1,22.2,27.38,NNE,25,5.8,5.8,18,0.00,,,0.00,VWS V14.00,2013-03-23 01:46:00,
2013-03-22 19:49:00,66.9,22.1,27.38,NNE,31,7.2,8.7,18,0.00,,,0.00,VWS V14.00,2013-03-23 01:49:00,
2013-03-22 19:51:00,66.7,21.9,27.38,NE,40,5.4,8.7,18,0.00,,,0.00,VWS V14.00,2013-03-23 01:51:00,
2013-03-22 19:53:00,66.7,21.9,27.38,North,357,4.9,8.7,18,0.00,,,0.00,VWS V14.00,2013-03-23 01:53:00,
2013-03-22 19:54:00,66.6,21.8,27.38,NE,48,4.0,8.7,18,0.00,,,0.00,VWS V14.00,2013-03-23 01:54:00,
2013-03-22 19:56:00,66.4,21.6,27.38,NE,47,5.8,8.7,18,0.00,,,0.00,VWS V14.00,2013-03-23 01:56:00,
2013-03-22 19:57:00,66.4,21.6,27.38,NE,45,4.0,8.7,18,0.00,,,0.00,VWS V14.00,2013-03-23 01:57:00,
2013-03-22 19:58:00,66.2,21.5,27.38,NE,35,5.8,11.4,18,0.00,,,0.00,VWS V14.00,2013-03-23 01:58:00,
2013-03-22 19:59:00,66.0,21.3,27.38,NNE,28,12.3,12.3,18,0.00,,,0.00,VWS V14.00,2013-03-23 01:59:00,
2013-03-22 20:01:00,65.8,21.2,27.38,NNE,23,9.2,9.2,18,0.00,,,0.00,VWS V14.00,2013-03-23 02:01:00,
2013-03-22 20:02:00,65.7,21.0,27.38,NE,41,8.1,9.2,18,0.00,,,0.00,VWS V14.00,2013-03-23 02:02:00,
2013-03-22 20:04:00,65.3,20.7,27.38,NE,41,8.3,9.2,18,0.00,,,0.00,VWS V14.00,2013-03-23 02:04:00,
2013-03-22 20:06:00,65.1,20.6,27.38,NE,41,8.7,9.2,18,0.00,,,0.00,VWS V14.00,2013-03-23 02:06:00,
2013-03-22 20:07:00,64.8,20.3,27.38,NE,45,4.9,9.2,18,0.00,,,0.00,VWS V14.00,2013-03-23 02:07:00,
2013-03-22 20:08:00,64.6,20.1,27.38,NE,52,6.3,9.2,18,0.00,,,0.00,VWS V14.00,2013-03-23 02:08:00,
2013-03-22 20:10:00,64.4,20.0,27.38,NNE,12,8.1,9.2,18,0.00,,,0.00,VWS V14.00,2013-03-23 02:10:00,
2013-03-22 20:11:00,64.2,21.1,27.38,North,3,8.7,9.2,19,0.00,,,0.00,VWS V14.00,2013-03-23 02:11:00,
2013-03-22 20:13:00,63.5,20.5,27.38,North,6,12.8,12.8,19,0.00,,,0.00,VWS V14.00,2013-03-23 02:13:00,
2013-03-22 20:15:00,63.3,20.4,27.38,NNE,32,3.6,12.8,19,0.00,,,0.00,VWS V14.00,2013-03-23 02:15:00,
2013-03-22 20:17:00,63.0,20.1,27.38,NNE,23,5.4,8.7,19,0.00,,,0.00,VWS V14.00,2013-03-23 02:17:00,
2013-03-22 20:18:00,62.8,19.9,27.38,North,10,4.0,8.7,19,0.00,,,0.00,VWS V14.00,2013-03-23 02:18:00,
2013-03-22 20:19:00,62.8,19.9,27.38,ENE,62,5.4,8.7,19,0.00,,,0.00,VWS V14.00,2013-03-23 02:19:00,
2013-03-22 20:20:00,62.6,19.8,27.38,ENE,61,8.7,10.1,19,0.00,,,0.00,VWS V14.00,2013-03-23 02:20:00,
2013-03-22 20:23:00,62.1,19.3,27.38,NE,47,10.1,13.2,19,0.00,,,0.00,VWS V14.00,2013-03-23 02:23:00,
2013-03-22 20:24:00,61.9,19.2,27.38,NNE,29,6.3,13.2,19,0.00,,,0.00,VWS V14.00,2013-03-23 02:24:00,
2013-03-22 20:25:00,61.7,19.0,27.38,ENE,75,5.4,13.2,19,0.00,,,0.00,VWS V14.00,2013-03-23 02:25:00,
2013-03-22 20:28:00,61.2,18.6,27.38,NE,34,3.1,13.2,19,0.00,,,0.00,VWS V14.00,2013-03-23 02:28:00,
2013-03-22 20:29:00,61.2,18.6,27.38,NE,44,5.4,13.2,19,0.00,,,0.00,VWS V14.00,2013-03-23 02:29:00,
2013-03-22 20:30:00,61.0,18.5,27.38,NNE,17,4.0,13.2,19,0.00,,,0.00,VWS V14.00,2013-03-23 02:30:00,
2013-03-22 20:35:00,60.6,19.4,27.41,NNE,29,5.4,11.0,20,0.00,,,0.00,VWS V14.00,2013-03-23 02:35:00,
2013-03-22 20:37:00,60.4,19.2,27.41,NE,40,4.0,11.0,20,0.00,,,0.00,VWS V14.00,2013-03-23 02:37:00,
2013-03-22 20:38:00,60.4,19.2,27.41,NE,45,8.3,11.4,20,0.00,,,0.00,VWS V14.00,2013-03-23 02:38:00,
2013-03-22 20:41:00,60.1,18.9,27.41,NNE,30,6.3,11.4,20,0.00,,,0.00,VWS V14.00,2013-03-23 02:41:00,
2013-03-22 20:42:00,60.1,18.9,27.41,NE,40,5.8,11.4,20,0.00,,,0.00,VWS V14.00,2013-03-23 02:42:00,
2013-03-22 20:43:00,59.9,18.8,27.41,NE,48,3.6,11.4,20,0.00,,,0.00,VWS V14.00,2013-03-23 02:43:00,
2013-03-22 20:45:00,59.7,18.6,27.41,NNE,21,5.4,11.4,20,0.00,,,0.00,VWS V14.00,2013-03-23 02:45:00,
2013-03-22 20:46:00,59.5,18.5,27.41,NE,44,5.4,10.5,20,0.00,,,0.00,VWS V14.00,2013-03-23 02:46:00,
2013-03-22 20:48:00,59.5,18.5,27.38,NE,49,2.7,10.5,20,0.00,,,0.00,VWS V14.00,2013-03-23 02:48:00,
2013-03-22 20:49:00,59.2,18.2,27.38,NNE,13,10.1,10.5,20,0.00,,,0.00,VWS V14.00,2013-03-23 02:49:00,
2013-03-22 20:50:00,59.2,18.2,27.38,NNE,13,5.4,10.5,20,0.00,,,0.00,VWS V14.00,2013-03-23 02:50:00,
2013-03-22 20:52:00,59.0,18.0,27.38,NNE,29,8.1,10.5,20,0.00,,,0.00,VWS V14.00,2013-03-23 02:52:00,
2013-03-22 20:53:00,58.8,17.9,27.38,NE,36,4.5,10.5,20,0.00,,,0.00,VWS V14.00,2013-03-23 02:53:00,
2013-03-22 20:55:00,58.8,17.9,27.38,NE,45,2.7,10.5,20,0.00,,,0.00,VWS V14.00,2013-03-23 02:55:00,
2013-03-22 20:58:00,58.5,17.6,27.38,NE,44,2.7,10.5,20,0.00,,,0.00,VWS V14.00,2013-03-23 02:58:00,
2013-03-22 21:01:00,58.5,17.6,27.38,NNE,31,4.9,6.3,20,0.00,,,0.00,VWS V14.00,2013-03-23 03:01:00,
2013-03-22 21:03:00,58.5,17.6,27.38,NE,41,4.9,6.3,20,0.00,,,0.00,VWS V14.00,2013-03-23 03:03:00,
2013-03-22 21:05:00,58.3,17.4,27.38,East,81,5.8,10.1,20,0.00,,,0.00,VWS V14.00,2013-03-23 03:05:00,
2013-03-22 21:06:00,58.3,17.4,27.38,NE,35,5.4,10.1,20,0.00,,,0.00,VWS V14.00,2013-03-23 03:06:00,
2013-03-22 21:07:00,58.1,17.3,27.38,NE,36,3.1,10.1,20,0.00,,,0.00,VWS V14.00,2013-03-23 03:07:00,
2013-03-22 21:08:00,58.1,17.3,27.38,NNE,14,4.0,10.1,20,0.00,,,0.00,VWS V14.00,2013-03-23 03:08:00,
2013-03-22 21:10:00,57.9,17.1,27.38,NNE,32,4.0,10.1,20,0.00,,,0.00,VWS V14.00,2013-03-23 03:10:00,
2013-03-22 21:12:00,57.7,17.0,27.38,NE,55,2.7,10.1,20,0.00,,,0.00,VWS V14.00,2013-03-23 03:12:00,
2013-03-22 21:14:00,57.6,16.8,27.38,ENE,62,4.9,10.1,20,0.00,,,0.00,VWS V14.00,2013-03-23 03:14:00,
2013-03-22 21:16:00,57.4,16.7,27.38,NE,36,4.5,7.2,20,0.00,,,0.00,VWS V14.00,2013-03-23 03:16:00,
2013-03-22 21:18:00,57.4,16.7,27.38,ENE,63,5.8,7.2,20,0.00,,,0.00,VWS V14.00,2013-03-23 03:18:00,
2013-03-22 21:19:00,57.2,16.5,27.38,ENE,63,8.1,8.1,20,0.00,,,0.00,VWS V14.00,2013-03-23 03:19:00,
2013-03-22 21:22:00,57.0,16.4,27.38,NNE,33,2.7,8.1,20,0.00,,,0.00,VWS V14.00,2013-03-23 03:22:00,
2013-03-22 21:23:00,57.0,16.4,27.38,NNE,33,0.0,8.1,20,0.00,,,0.00,VWS V14.00,2013-03-23 03:23:00,
2013-03-22 21:24:00,56.8,16.2,27.38,NE,42,5.8,8.1,20,0.00,,,0.00,VWS V14.00,2013-03-23 03:24:00,
2013-03-22 21:28:00,56.8,16.2,27.38,NNE,25,6.7,8.1,20,0.00,,,0.00,VWS V14.00,2013-03-23 03:28:00,
2013-03-22 21:29:00,56.8,16.2,27.38,NNE,28,4.0,8.1,20,0.00,,,0.00,VWS V14.00,2013-03-23 03:29:00,
2013-03-22 21:30:00,56.7,16.1,27.38,NNE,33,3.6,8.1,20,0.00,,,0.00,VWS V14.00,2013-03-23 03:30:00,
2013-03-22 21:33:00,56.7,16.1,27.38,ENE,58,2.7,8.1,20,0.00,,,0.00,VWS V14.00,2013-03-23 03:33:00,
2013-03-22 21:34:00,56.5,15.9,27.38,ENE,63,4.0,8.1,20,0.00,,,0.00,VWS V14.00,2013-03-23 03:34:00,
2013-03-22 21:35:00,56.5,15.9,27.38,ENE,63,2.7,8.1,20,0.00,,,0.00,VWS V14.00,2013-03-23 03:35:00,
2013-03-22 21:38:00,56.1,15.6,27.38,NNE,33,2.7,8.1,20,0.00,,,0.00,VWS V14.00,2013-03-23 03:38:00,
2013-03-22 21:40:00,56.1,15.6,27.38,ENE,60,2.7,8.1,20,0.00,,,0.00,VWS V14.00,2013-03-23 03:40:00,
2013-03-22 21:41:00,55.9,15.5,27.38,ENE,60,0.0,8.1,20,0.00,,,0.00,VWS V14.00,2013-03-23 03:41:00,
2013-03-22 21:44:00,55.9,15.5,27.38,ENE,70,3.6,8.1,20,0.00,,,0.00,VWS V14.00,2013-03-23 03:44:00,
2013-03-22 21:45:00,55.9,15.5,27.38,ENE,71,3.6,3.6,20,0.00,,,0.00,VWS V14.00,2013-03-23 03:45:00,
2013-03-22 21:46:00,55.8,15.3,27.38,ENE,71,2.7,3.6,20,0.00,,,0.00,VWS V14.00,2013-03-23 03:46:00,
2013-03-22 21:49:00,55.6,15.2,27.38,ENE,68,3.1,5.8,20,0.00,,,0.00,VWS V14.00,2013-03-23 03:49:00,
2013-03-22 21:51:00,55.6,15.2,27.38,ENE,68,2.7,5.8,20,0.00,,,0.00,VWS V14.00,2013-03-23 03:51:00,
2013-03-22 21:52:00,55.4,15.0,27.38,ENE,67,3.6,5.8,20,0.00,,,0.00,VWS V14.00,2013-03-23 03:52:00,
2013-03-22 21:54:00,55.2,16.0,27.38,ENE,67,0.0,5.8,21,0.00,,,0.00,VWS V14.00,2013-03-23 03:54:00,
2013-03-22 21:56:00,55.0,15.8,27.38,ENE,67,3.1,5.8,21,0.00,,,0.00,VWS V14.00,2013-03-23 03:56:00,
2013-03-22 21:57:00,55.0,15.8,27.38,ENE,66,2.7,5.8,21,0.00,,,0.00,VWS V14.00,2013-03-23 03:57:00,
2013-03-22 21:59:00,54.9,15.7,27.38,ENE,66,0.0,5.8,21,0.00,,,0.00,VWS V14.00,2013-03-23 03:59:00,
2013-03-22 22:00:00,54.9,15.7,27.38,ENE,66,0.0,5.8,21,0.00,,,0.00,VWS V14.00,2013-03-23 04:00:00,
2013-03-22 22:05:00,54.7,15.5,27.38,ENE,66,0.0,0.0,21,0.00,,,0.00,VWS V14.00,2013-03-23 04:05:00,
2013-03-22 22:08:00,54.5,15.4,27.38,ENE,66,0.0,3.6,21,0.00,,,0.00,VWS V14.00,2013-03-23 04:08:00,
2013-03-22 22:10:00,54.5,15.4,27.38,ENE,66,3.1,3.6,21,0.00,,,0.00,VWS V14.00,2013-03-23 04:10:00,
2013-03-22 22:11:00,54.5,15.4,27.38,ENE,66,2.2,3.6,21,0.00,,,0.00,VWS V14.00,2013-03-23 04:11:00,
2013-03-22 22:13:00,54.7,15.5,27.38,ENE,67,4.0,4.9,21,0.00,,,0.00,VWS V14.00,2013-03-23 04:13:00,
2013-03-22 22:15:00,54.9,15.7,27.38,ENE,60,2.2,2.7,21,0.00,,,0.00,VWS V14.00,2013-03-23 04:15:00,
2013-03-22 22:17:00,54.7,15.5,27.38,ENE,63,3.6,5.8,21,0.00,,,0.00,VWS V14.00,2013-03-23 04:17:00,
2013-03-22 22:19:00,54.7,15.5,27.35,ENE,63,0.0,5.8,21,0.00,,,0.00,VWS V14.00,2013-03-23 04:19:00,
2013-03-22 22:20:00,54.5,15.4,27.35,ENE,63,0.0,5.8,21,0.00,,,0.00,VWS V14.00,2013-03-23 04:20:00,
2013-03-22 22:22:00,54.3,15.2,27.35,ENE,63,0.0,5.8,21,0.00,,,0.00,VWS V14.00,2013-03-23 04:22:00,
2013-03-22 22:24:00,54.1,15.1,27.35,ENE,64,3.1,5.8,21,0.00,,,0.00,VWS V14.00,2013-03-23 04:24:00,
2013-03-22 22:25:00,54.1,15.1,27.35,ENE,63,4.0,5.8,21,0.00,,,0.00,VWS V14.00,2013-03-23 04:25:00,
2013-03-22 22:26:00,54.1,15.1,27.35,ENE,72,3.1,5.8,21,0.00,,,0.00,VWS V14.00,2013-03-23 04:26:00,
2013-03-22 22:28:00,54.3,15.2,27.35,ENE,72,2.7,7.6,21,0.00,,,0.00,VWS V14.00,2013-03-23 04:28:00,
2013-03-22 22:30:00,54.1,15.1,27.35,ENE,68,5.8,7.6,21,0.00,,,0.00,VWS V14.00,2013-03-23 04:30:00,
2013-03-22 22:31:00,54.1,15.1,27.35,ENE,63,3.1,4.0,21,0.00,,,0.00,VWS V14.00,2013-03-23 04:31:00,
2013-03-22 22:32:00,54.1,15.1,27.35,ENE,69,4.0,4.9,21,0.00,,,0.00,VWS V14.00,2013-03-23 04:32:00,
2013-03-22 22:33:00,54.0,14.9,27.35,ENE,66,3.1,5.4,21,0.00,,,0.00,VWS V14.00,2013-03-23 04:33:00,
2013-03-22 22:36:00,53.8,14.8,27.35,East,80,0.0,5.4,21,0.00,,,0.00,VWS V14.00,2013-03-23 04:36:00,
2013-03-22 22:37:00,54.0,14.9,27.35,ENE,65,7.6,7.6,21,0.00,,,0.00,VWS V14.00,2013-03-23 04:37:00,
2013-03-22 22:40:00,53.8,14.8,27.35,NE,56,4.0,7.6,21,0.00,,,0.00,VWS V14.00,2013-03-23 04:40:00,
2013-03-22 22:42:00,53.8,14.8,27.35,ENE,58,2.2,7.6,21,0.00,,,0.00,VWS V14.00,2013-03-23 04:42:00,
2013-03-22 22:43:00,53.8,14.8,27.35,NE,48,3.6,7.6,21,0.00,,,0.00,VWS V14.00,2013-03-23 04:43:00,
2013-03-22 22:45:00,53.6,14.6,27.35,ENE,71,4.0,4.0,21,0.00,,,0.00,VWS V14.00,2013-03-23 04:45:00,
2013-03-22 22:47:00,53.8,14.8,27.35,ENE,70,4.0,6.3,21,0.00,,,0.00,VWS V14.00,2013-03-23 04:47:00,
2013-03-22 22:49:00,54.0,14.9,27.35,ENE,66,3.6,7.6,21,0.00,,,0.00,VWS V14.00,2013-03-23 04:49:00,
2013-03-22 22:50:00,54.0,14.9,27.35,NE,48,3.1,7.6,21,0.00,,,0.00,VWS V14.00,2013-03-23 04:50:00,
2013-03-22 22:52:00,54.0,14.9,27.35,ENE,76,5.4,7.6,21,0.00,,,0.00,VWS V14.00,2013-03-23 04:52:00,
2013-03-22 22:55:00,54.0,14.9,27.35,NE,39,3.6,7.6,21,0.00,,,0.00,VWS V14.00,2013-03-23 04:55:00,
2013-03-22 22:56:00,54.0,14.9,27.35,ENE,61,2.7,7.6,21,0.00,,,0.00,VWS V14.00,2013-03-23 04:56:00,
2013-03-22 22:57:00,54.0,14.9,27.35,ENE,65,5.8,7.6,21,0.00,,,0.00,VWS V14.00,2013-03-23 04:57:00,
2013-03-22 22:58:00,54.0,14.9,27.35,ENE,57,2.7,7.6,21,0.00,,,0.00,VWS V14.00,2013-03-23 04:58:00,
2013-03-22 23:00:00,54.0,14.9,27.35,ENE,63,2.7,7.6,21,0.00,,,0.00,VWS V14.00,2013-03-23 05:00:00,
2013-03-22 23:02:00,54.0,14.9,27.35,ENE,69,5.4,5.4,21,0.00,,,0.00,VWS V14.00,2013-03-23 05:02:00,
2013-03-22 23:04:00,53.8,14.8,27.32,ENE,65,2.7,6.3,21,0.00,,,0.00,VWS V14.00,2013-03-23 05:04:00,
2013-03-22 23:05:00,53.8,14.8,27.32,NNE,24,5.8,6.3,21,0.00,,,0.00,VWS V14.00,2013-03-23 05:05:00,
2013-03-22 23:07:00,53.8,14.8,27.32,NE,39,4.0,6.3,21,0.00,,,0.00,VWS V14.00,2013-03-23 05:07:00,
2013-03-22 23:10:00,53.8,14.8,27.32,NE,34,3.6,6.3,21,0.00,,,0.00,VWS V14.00,2013-03-23 05:10:00,
2013-03-22 23:11:00,53.8,14.8,27.32,NE,41,2.7,6.3,21,0.00,,,0.00,VWS V14.00,2013-03-23 05:11:00,
2013-03-22 23:13:00,54.0,14.9,27.32,NE,43,3.1,6.3,21,0.00,,,0.00,VWS V14.00,2013-03-23 05:13:00,
2013-03-22 23:17:00,54.0,14.9,27.32,NE,44,3.1,4.5,21,0.00,,,0.00,VWS V14.00,2013-03-23 05:17:00,
2013-03-22 23:18:00,54.1,15.1,27.32,NE,46,3.6,5.4,21,0.00,,,0.00,VWS V14.00,2013-03-23 05:18:00,
2013-03-22 23:19:00,54.1,15.1,27.32,NE,51,4.0,5.4,21,0.00,,,0.00,VWS V14.00,2013-03-23 05:19:00,
2013-03-22 23:22:00,54.3,15.2,27.32,NNE,27,3.1,5.4,21,0.00,,,0.00,VWS V14.00,2013-03-23 05:22:00,
2013-03-22 23:23:00,54.3,15.2,27.32,NNE,27,2.2,5.4,21,0.00,,,0.00,VWS V14.00,2013-03-23 05:23:00,
2013-03-22 23:25:00,54.3,15.2,27.32,NE,38,3.6,5.4,21,0.00,,,0.00,VWS V14.00,2013-03-23 05:25:00,
2013-03-22 23:28:00,54.5,15.4,27.32,NE,38,0.0,5.4,21,0.00,,,0.00,VWS V14.00,2013-03-23 05:28:00,
2013-03-22 23:29:00,54.5,15.4,27.32,NE,38,0.0,5.4,21,0.00,,,0.00,VWS V14.00,2013-03-23 05:29:00,
2013-03-22 23:30:00,54.5,15.4,27.32,NE,38,0.0,0.0,21,0.00,,,0.00,VWS V14.00,2013-03-23 05:30:00,
2013-03-22 23:34:00,54.5,15.4,27.32,NE,38,0.0,0.0,21,0.00,,,0.00,VWS V14.00,2013-03-23 05:34:00,
2013-03-22 23:35:00,54.7,15.5,27.32,NE,38,0.0,0.0,21,0.00,,,0.00,VWS V14.00,2013-03-23 05:35:00,
2013-03-22 23:36:00,54.7,15.5,27.32,NE,38,2.7,3.6,21,0.00,,,0.00,VWS V14.00,2013-03-23 05:36:00,
2013-03-22 23:39:00,54.7,15.5,27.32,North,5,0.0,4.0,21,0.00,,,0.00,VWS V14.00,2013-03-23 05:39:00,
2013-03-22 23:40:00,54.7,15.5,27.32,North,5,2.2,4.0,21,0.00,,,0.00,VWS V14.00,2013-03-23 05:40:00,
2013-03-22 23:41:00,54.7,15.5,27.32,NNE,14,0.0,4.0,21,0.00,,,0.00,VWS V14.00,2013-03-23 05:41:00,
2013-03-22 23:42:00,54.7,15.5,27.32,NNE,18,2.7,4.0,21,0.00,,,0.00,VWS V14.00,2013-03-23 05:42:00,
2013-03-22 23:44:00,54.7,15.5,27.32,ENE,57,2.7,4.0,21,0.00,,,0.00,VWS V14.00,2013-03-23 05:44:00,
2013-03-22 23:45:00,54.7,15.5,27.32,ENE,57,2.2,2.7,21,0.00,,,0.00,VWS V14.00,2013-03-23 05:45:00,
2013-03-22 23:47:00,54.5,15.4,27.32,NE,40,2.7,4.0,21,0.00,,,0.00,VWS V14.00,2013-03-23 05:47:00,
2013-03-22 23:49:00,54.5,15.4,27.29,NE,41,0.0,4.0,21,0.00,,,0.00,VWS V14.00,2013-03-23 05:49:00,
2013-03-22 23:50:00,54.5,15.4,27.29,NE,42,3.6,4.0,21,0.00,,,0.00,VWS V14.00,2013-03-23 05:50:00,
2013-03-22 23:51:00,54.5,15.4,27.29,NE,43,3.1,4.0,21,0.00,,,0.00,VWS V14.00,2013-03-23 05:51:00,
2013-03-22 23:54:00,54.3,15.2,27.29,NNE,33,3.1,4.9,21,0.00,,,0.00,VWS V14.00,2013-03-23 05:54:00,
2013-03-22 23:55:00,54.5,15.4,27.29,NE,34,2.7,4.9,21,0.00,,,0.00,VWS V14.00,2013-03-23 05:55:00,
2013-03-22 23:56:00,54.5,15.4,27.29,NE,34,3.1,4.9,21,0.00,,,0.00,VWS V14.00,2013-03-23 05:56:00,
2013-03-22 23:58:00,54.3,15.2,27.29,NNE,27,3.1,7.6,21,0.00,,,0.00,VWS V14.00,2013-03-23 05:58:00,
2013-03-22 23:59:00,54.1,15.1,27.29,North,6,4.0,7.6,21,0.00,,,0.00,VWS V14.00,2013-03-23 05:59:00,